Time,TemperatureF,DewpointF,PressureIn,WindDirection,WindDirectionDegrees,WindSpeedMPH,WindSpeedGustMPH,Humidity,HourlyPrecipIn,Conditions,Clouds,dailyrainin,SoftwareType,DateUTC
2013-02-18 00:00:00,16.4,-2.7,29.61,NW,307,3.0,7.0,42,0.00,,---,0.00,VWS V14.00,2013-02-18 05:00:00,
2013-02-18 00:05:00,16.4,-2.7,29.61,NW,314,2.0,17.0,42,0.00,,---,0.00,VWS V14.00,2013-02-18 05:05:00,
2013-02-18 00:10:00,16.4,-2.7,29.61,NNW,339,6.0,17.0,42,0.00,,---,0.00,VWS V14.00,2013-02-18 05:10:00,
2013-02-18 00:15:00,16.4,-2.7,29.62,NW,304,2.0,5.0,42,0.00,,---,0.00,VWS V14.00,2013-02-18 05:15:00,
2013-02-18 00:20:00,16.2,-2.8,29.62,NW,323,1.0,21.0,42,0.00,,---,0.00,VWS V14.00,2013-02-18 05:20:00,
2013-02-18 00:25:00,16.2,-2.4,29.62,West,271,3.0,21.0,43,0.00,,---,0.00,VWS V14.00,2013-02-18 05:25:00,
2013-02-18 00:30:00,16.2,-2.4,29.63,NNW,347,5.0,14.0,43,0.00,,---,0.00,VWS V14.00,2013-02-18 05:30:00,
2013-02-18 00:31:00,16.2,-2.8,29.63,NW,318,12.0,14.0,42,0.00,,---,0.00,VWS V14.00,2013-02-18 05:31:00,
2013-02-18 00:35:00,16.2,-2.4,29.63,WSW,256,10.0,14.0,43,0.00,,---,0.00,VWS V14.00,2013-02-18 05:35:00,
2013-02-18 00:36:00,16.2,-2.8,29.63,NNW,338,4.0,16.0,42,0.00,,---,0.00,VWS V14.00,2013-02-18 05:36:00,
2013-02-18 00:40:00,16.2,-2.4,29.63,NW,316,5.0,16.0,43,0.00,,---,0.00,VWS V14.00,2013-02-18 05:40:00,
2013-02-18 00:41:00,16.1,-2.9,29.63,NW,321,7.0,16.0,42,0.00,,---,0.00,VWS V14.00,2013-02-18 05:41:00,
2013-02-18 00:45:00,16.1,-2.5,29.63,WNW,286,11.0,12.0,43,0.00,,---,0.00,VWS V14.00,2013-02-18 05:45:00,
2013-02-18 00:46:00,16.1,-2.5,29.63,NW,319,4.0,12.0,43,0.00,,---,0.00,VWS V14.00,2013-02-18 05:46:00,
2013-02-18 00:51:00,16.1,-2.5,29.63,NW,304,4.0,14.0,43,0.00,,---,0.00,VWS V14.00,2013-02-18 05:51:00,
2013-02-18 00:56:00,16.1,-2.9,29.63,North,1,5.0,20.0,42,0.00,,---,0.00,VWS V14.00,2013-02-18 05:56:00,
2013-02-18 01:00:00,15.9,-3.1,29.64,North,359,2.0,20.0,42,0.00,,---,0.00,VWS V14.00,2013-02-18 06:00:00,
2013-02-18 01:01:00,15.9,-2.6,29.64,North,0,4.0,25.0,43,0.00,,---,0.00,VWS V14.00,2013-02-18 06:01:00,
2013-02-18 01:02:00,15.9,-2.6,29.64,NNW,333,4.0,25.0,43,0.00,,---,0.00,VWS V14.00,2013-02-18 06:02:00,
2013-02-18 01:06:00,15.9,-2.6,29.64,North,349,5.0,25.0,43,0.00,,---,0.00,VWS V14.00,2013-02-18 06:06:00,
2013-02-18 01:07:00,15.9,-2.6,29.64,NNW,338,10.0,25.0,43,0.00,,---,0.00,VWS V14.00,2013-02-18 06:07:00,
2013-02-18 01:11:00,15.9,-2.6,29.64,NNW,330,12.0,25.0,43,0.00,,---,0.00,VWS V14.00,2013-02-18 06:11:00,
2013-02-18 01:12:00,15.9,-2.6,29.64,NW,323,2.0,25.0,43,0.00,,---,0.00,VWS V14.00,2013-02-18 06:12:00,
2013-02-18 01:15:00,15.9,-3.1,29.64,NNW,341,10.0,25.0,42,0.00,,---,0.00,VWS V14.00,2013-02-18 06:15:00,
2013-02-18 01:16:00,15.9,-3.1,29.64,West,281,1.0,10.0,42,0.00,,---,0.00,VWS V14.00,2013-02-18 06:16:00,
2013-02-18 01:17:00,15.9,-2.6,29.64,NNW,334,4.0,10.0,43,0.00,,---,0.00,VWS V14.00,2013-02-18 06:17:00,
2013-02-18 01:21:00,15.7,-2.8,29.64,North,352,3.0,12.0,43,0.00,,---,0.00,VWS V14.00,2013-02-18 06:21:00,
2013-02-18 01:22:00,15.7,-2.3,29.64,NW,321,3.0,12.0,44,0.00,,---,0.00,VWS V14.00,2013-02-18 06:22:00,
2013-02-18 01:26:00,15.7,-2.8,29.64,NNW,327,2.0,12.0,43,0.00,,---,0.00,VWS V14.00,2013-02-18 06:26:00,
2013-02-18 01:27:00,15.7,-2.8,29.64,North,359,2.0,12.0,43,0.00,,---,0.00,VWS V14.00,2013-02-18 06:27:00,
2013-02-18 01:30:00,15.7,-2.8,29.65,North,349,5.0,12.0,43,0.00,,---,0.00,VWS V14.00,2013-02-18 06:30:00,
2013-02-18 01:31:00,15.7,-2.8,29.65,NNW,333,13.0,17.0,43,0.00,,---,0.00,VWS V14.00,2013-02-18 06:31:00,
2013-02-18 01:32:00,15.7,-3.3,29.65,NW,324,10.0,17.0,42,0.00,,---,0.00,VWS V14.00,2013-02-18 06:32:00,
2013-02-18 01:36:00,15.7,-2.3,29.65,North,359,9.0,17.0,44,0.00,,---,0.00,VWS V14.00,2013-02-18 06:36:00,
2013-02-18 01:37:00,15.7,-2.3,29.65,NW,320,1.0,17.0,44,0.00,,---,0.00,VWS V14.00,2013-02-18 06:37:00,
2013-02-18 01:41:00,15.7,-2.8,29.65,NNW,337,2.0,17.0,43,0.00,,---,0.00,VWS V14.00,2013-02-18 06:41:00,
2013-02-18 01:42:00,15.7,-2.8,29.65,NNW,346,3.0,17.0,43,0.00,,---,0.00,VWS V14.00,2013-02-18 06:42:00,
2013-02-18 01:45:00,15.7,-2.8,29.65,NW,326,10.0,17.0,43,0.00,,---,0.00,VWS V14.00,2013-02-18 06:45:00,
2013-02-18 01:46:00,15.7,-2.3,29.65,NNW,345,13.0,13.0,44,0.00,,---,0.00,VWS V14.00,2013-02-18 06:46:00,
2013-02-18 01:47:00,15.7,-2.3,29.65,North,0,11.0,15.0,44,0.00,,---,0.00,VWS V14.00,2013-02-18 06:47:00,
2013-02-18 01:51:00,15.7,-2.8,29.65,NW,323,1.0,15.0,43,0.00,,---,0.00,VWS V14.00,2013-02-18 06:51:00,
2013-02-18 01:52:00,15.7,-2.8,29.65,NW,325,2.0,15.0,43,0.00,,---,0.00,VWS V14.00,2013-02-18 06:52:00,
2013-02-18 01:57:00,15.6,-2.4,29.65,North,4,6.0,15.0,44,0.00,,---,0.00,VWS V14.00,2013-02-18 06:57:00,
2013-02-18 02:00:00,15.6,-2.4,29.66,NNW,338,12.0,15.0,44,0.00,,---,0.00,VWS V14.00,2013-02-18 07:00:00,
2013-02-18 02:02:00,15.6,-2.9,29.66,NNW,330,9.0,15.0,43,0.00,,---,0.00,VWS V14.00,2013-02-18 07:02:00,
2013-02-18 02:03:00,15.6,-2.4,29.66,NW,326,3.0,15.0,44,0.00,,---,0.00,VWS V14.00,2013-02-18 07:03:00,
2013-02-18 02:07:00,15.6,-2.4,29.66,North,352,8.0,15.0,44,0.00,,---,0.00,VWS V14.00,2013-02-18 07:07:00,
2013-02-18 02:08:00,15.6,-2.9,29.66,NNW,335,1.0,15.0,43,0.00,,---,0.00,VWS V14.00,2013-02-18 07:08:00,
2013-02-18 02:12:00,15.6,-2.4,29.66,NNW,345,5.0,16.0,44,0.00,,---,0.00,VWS V14.00,2013-02-18 07:12:00,
2013-02-18 02:13:00,15.4,-2.6,29.66,NNW,335,1.0,16.0,44,0.00,,---,0.00,VWS V14.00,2013-02-18 07:13:00,
2013-02-18 02:15:00,15.4,-2.6,29.66,NW,323,2.0,16.0,44,0.00,,---,0.00,VWS V14.00,2013-02-18 07:15:00,
2013-02-18 02:17:00,15.4,-2.6,29.66,NW,318,3.0,11.0,44,0.00,,---,0.00,VWS V14.00,2013-02-18 07:17:00,
2013-02-18 02:18:00,15.4,-2.6,29.66,North,356,10.0,17.0,44,0.00,,---,0.00,VWS V14.00,2013-02-18 07:18:00,
2013-02-18 02:22:00,15.4,-2.6,29.66,NNW,334,9.0,17.0,44,0.00,,---,0.00,VWS V14.00,2013-02-18 07:22:00,
2013-02-18 02:23:00,15.4,-2.6,29.66,NW,325,6.0,17.0,44,0.00,,---,0.00,VWS V14.00,2013-02-18 07:23:00,
2013-02-18 02:27:00,15.4,-2.6,29.66,WNW,288,4.0,17.0,44,0.00,,---,0.00,VWS V14.00,2013-02-18 07:27:00,
2013-02-18 02:28:00,15.4,-2.6,29.66,North,356,3.0,17.0,44,0.00,,---,0.00,VWS V14.00,2013-02-18 07:28:00,
2013-02-18 02:30:00,15.4,-2.6,29.66,NW,323,1.0,17.0,44,0.00,,---,0.00,VWS V14.00,2013-02-18 07:30:00,
2013-02-18 02:32:00,15.2,-2.8,29.66,NW,319,5.0,16.0,44,0.00,,---,0.00,VWS V14.00,2013-02-18 07:32:00,
2013-02-18 02:33:00,15.2,-2.8,29.66,West,260,10.0,16.0,44,0.00,,---,0.00,VWS V14.00,2013-02-18 07:33:00,
2013-02-18 02:37:00,15.2,-2.8,29.66,North,353,12.0,16.0,44,0.00,,---,0.00,VWS V14.00,2013-02-18 07:37:00,
2013-02-18 02:38:00,15.2,-2.8,29.66,NNW,346,7.0,16.0,44,0.00,,---,0.00,VWS V14.00,2013-02-18 07:38:00,
2013-02-18 02:42:00,15.2,-2.8,29.66,NW,322,3.0,18.0,44,0.00,,---,0.00,VWS V14.00,2013-02-18 07:42:00,
2013-02-18 02:43:00,15.2,-2.3,29.66,NW,318,1.0,18.0,45,0.00,,---,0.00,VWS V14.00,2013-02-18 07:43:00,
2013-02-18 02:45:00,15.2,-2.8,29.67,NNW,340,0.0,18.0,44,0.00,,---,0.00,VWS V14.00,2013-02-18 07:45:00,
2013-02-18 02:47:00,15.2,-2.8,29.67,NNW,329,3.0,11.0,44,0.00,,---,0.00,VWS V14.00,2013-02-18 07:47:00,
2013-02-18 02:48:00,15.2,-2.8,29.67,North,359,1.0,11.0,44,0.00,,---,0.00,VWS V14.00,2013-02-18 07:48:00,
2013-02-18 02:49:00,15.2,-2.8,29.67,North,1,3.0,11.0,44,0.00,,---,0.00,VWS V14.00,2013-02-18 07:49:00,
2013-02-18 02:52:00,15.1,-2.9,29.67,NW,306,7.0,16.0,44,0.00,,---,0.00,VWS V14.00,2013-02-18 07:52:00,
2013-02-18 02:53:00,15.1,-2.9,29.67,NNW,336,10.0,16.0,44,0.00,,---,0.00,VWS V14.00,2013-02-18 07:53:00,
2013-02-18 02:54:00,15.1,-2.9,29.67,NNW,336,6.0,16.0,44,0.00,,---,0.00,VWS V14.00,2013-02-18 07:54:00,
2013-02-18 02:57:00,15.2,-2.8,29.67,WNW,302,1.0,16.0,44,0.00,,---,0.00,VWS V14.00,2013-02-18 07:57:00,
2013-02-18 02:58:00,15.2,-2.8,29.67,NW,320,4.0,16.0,44,0.00,,---,0.00,VWS V14.00,2013-02-18 07:58:00,
2013-02-18 02:59:00,15.1,-2.9,29.68,NNW,340,3.0,16.0,44,0.00,,---,0.00,VWS V14.00,2013-02-18 07:59:00,
2013-02-18 03:00:00,15.1,-2.4,29.68,WNW,295,6.0,16.0,45,0.00,,---,0.00,VWS V14.00,2013-02-18 08:00:00,
2013-02-18 03:02:00,15.1,-2.9,29.68,WNW,287,3.0,9.0,44,0.00,,---,0.00,VWS V14.00,2013-02-18 08:02:00,
2013-02-18 03:03:00,15.1,-2.9,29.68,NNW,328,0.0,9.0,44,0.00,,---,0.00,VWS V14.00,2013-02-18 08:03:00,
2013-02-18 03:04:00,15.1,-2.4,29.68,NNW,345,1.0,13.0,45,0.00,,---,0.00,VWS V14.00,2013-02-18 08:04:00,
2013-02-18 03:07:00,15.1,-2.4,29.68,North,352,2.0,13.0,45,0.00,,---,0.00,VWS V14.00,2013-02-18 08:07:00,
2013-02-18 03:08:00,15.1,-2.4,29.68,North,350,3.0,13.0,45,0.00,,---,0.00,VWS V14.00,2013-02-18 08:08:00,
2013-02-18 03:09:00,15.1,-2.4,29.68,NW,314,1.0,13.0,45,0.00,,---,0.00,VWS V14.00,2013-02-18 08:09:00,
2013-02-18 03:12:00,15.1,-2.9,29.68,NNW,343,6.0,18.0,44,0.00,,---,0.00,VWS V14.00,2013-02-18 08:12:00,
2013-02-18 03:13:00,15.1,-2.9,29.68,NW,316,9.0,18.0,44,0.00,,---,0.00,VWS V14.00,2013-02-18 08:13:00,
2013-02-18 03:14:00,15.1,-2.9,29.69,NNW,345,0.0,18.0,44,0.00,,---,0.00,VWS V14.00,2013-02-18 08:14:00,
2013-02-18 03:15:00,15.1,-2.9,29.69,NNW,345,1.0,18.0,44,0.00,,---,0.00,VWS V14.00,2013-02-18 08:15:00,
2013-02-18 03:17:00,15.1,-2.9,29.69,NNW,335,11.0,12.0,44,0.00,,---,0.00,VWS V14.00,2013-02-18 08:17:00,
2013-02-18 03:18:00,15.1,-2.4,29.69,NW,307,6.0,12.0,45,0.00,,---,0.00,VWS V14.00,2013-02-18 08:18:00,
2013-02-18 03:19:00,15.1,-2.9,29.69,NW,318,3.0,12.0,44,0.00,,---,0.00,VWS V14.00,2013-02-18 08:19:00,
2013-02-18 03:23:00,14.9,-3.1,29.69,NW,316,4.0,12.0,44,0.00,,---,0.00,VWS V14.00,2013-02-18 08:23:00,
2013-02-18 03:24:00,14.9,-2.6,29.69,WSW,255,2.0,12.0,45,0.00,,---,0.00,VWS V14.00,2013-02-18 08:24:00,
2013-02-18 03:28:00,14.9,-2.6,29.69,NW,322,2.0,12.0,45,0.00,,---,0.00,VWS V14.00,2013-02-18 08:28:00,
2013-02-18 03:29:00,14.9,-2.6,29.70,NW,308,3.0,12.0,45,0.00,,---,0.00,VWS V14.00,2013-02-18 08:29:00,
2013-02-18 03:30:00,14.9,-2.6,29.70,NW,319,2.0,12.0,45,0.00,,---,0.00,VWS V14.00,2013-02-18 08:30:00,
2013-02-18 03:33:00,14.8,-2.7,29.70,NNW,328,10.0,14.0,45,0.00,,---,0.00,VWS V14.00,2013-02-18 08:33:00,
2013-02-18 03:34:00,14.8,-3.2,29.70,NW,314,3.0,14.0,44,0.00,,---,0.00,VWS V14.00,2013-02-18 08:34:00,
2013-02-18 03:38:00,14.8,-2.7,29.70,NNW,344,5.0,14.0,45,0.00,,---,0.00,VWS V14.00,2013-02-18 08:38:00,
2013-02-18 03:39:00,14.8,-2.2,29.70,NNW,327,2.0,14.0,46,0.00,,---,0.00,VWS V14.00,2013-02-18 08:39:00,
2013-02-18 03:43:00,14.8,-2.7,29.70,NNW,338,10.0,14.0,45,0.00,,---,0.00,VWS V14.00,2013-02-18 08:43:00,
2013-02-18 03:44:00,14.8,-2.7,29.71,NNW,336,4.0,14.0,45,0.00,,---,0.00,VWS V14.00,2013-02-18 08:44:00,
2013-02-18 03:45:00,14.8,-2.7,29.71,NNW,332,7.0,14.0,45,0.00,,---,0.00,VWS V14.00,2013-02-18 08:45:00,
2013-02-18 03:48:00,14.8,-2.7,29.71,North,0,5.0,10.0,45,0.00,,---,0.00,VWS V14.00,2013-02-18 08:48:00,
2013-02-18 03:49:00,14.8,-2.7,29.71,North,353,2.0,10.0,45,0.00,,---,0.00,VWS V14.00,2013-02-18 08:49:00,
2013-02-18 03:53:00,14.6,-2.9,29.71,NNW,327,5.0,11.0,45,0.00,,---,0.00,VWS V14.00,2013-02-18 08:53:00,
2013-02-18 03:54:00,14.6,-2.4,29.71,NNW,327,4.0,11.0,46,0.00,,---,0.00,VWS V14.00,2013-02-18 08:54:00,
2013-02-18 03:58:00,14.6,-2.9,29.71,North,352,3.0,12.0,45,0.00,,---,0.00,VWS V14.00,2013-02-18 08:58:00,
2013-02-18 03:59:00,14.6,-2.9,29.72,NW,319,9.0,9.0,45,0.00,,---,0.00,VWS V14.00,2013-02-18 08:59:00,
2013-02-18 04:00:00,14.6,-2.9,29.72,NW,310,4.0,12.0,45,0.00,,---,0.00,VWS V14.00,2013-02-18 09:00:00,
2013-02-18 04:03:00,14.8,-2.7,29.72,NW,319,0.0,13.0,45,0.00,,---,0.00,VWS V14.00,2013-02-18 09:03:00,
2013-02-18 04:04:00,14.8,-2.7,29.72,NW,321,1.0,13.0,45,0.00,,---,0.00,VWS V14.00,2013-02-18 09:04:00,
2013-02-18 04:08:00,14.6,-2.4,29.72,WSW,245,2.0,13.0,46,0.00,,---,0.00,VWS V14.00,2013-02-18 09:08:00,
2013-02-18 04:09:00,14.6,-2.4,29.72,West,263,2.0,13.0,46,0.00,,---,0.00,VWS V14.00,2013-02-18 09:09:00,
2013-02-18 04:14:00,14.6,-2.9,29.72,SW,225,2.0,13.0,45,0.00,,---,0.00,VWS V14.00,2013-02-18 09:14:00,
2013-02-18 04:15:00,14.6,-2.4,29.72,NNW,338,7.0,13.0,46,0.00,,---,0.00,VWS V14.00,2013-02-18 09:15:00,
2013-02-18 04:19:00,14.6,-2.4,29.72,West,272,2.0,12.0,46,0.00,,---,0.00,VWS V14.00,2013-02-18 09:19:00,
2013-02-18 04:20:00,14.6,-2.9,29.72,WNW,284,5.0,15.0,45,0.00,,---,0.00,VWS V14.00,2013-02-18 09:20:00,
2013-02-18 04:24:00,14.8,-2.7,29.72,NW,321,7.0,15.0,45,0.00,,---,0.00,VWS V14.00,2013-02-18 09:24:00,
2013-02-18 04:25:00,14.8,-2.7,29.72,WNW,295,5.0,15.0,45,0.00,,---,0.00,VWS V14.00,2013-02-18 09:25:00,
2013-02-18 04:29:00,14.8,-2.7,29.74,NW,325,7.0,16.0,45,0.00,,---,0.00,VWS V14.00,2013-02-18 09:29:00,
2013-02-18 04:30:00,14.8,-2.7,29.74,NNW,336,3.0,7.0,45,0.00,,---,0.00,VWS V14.00,2013-02-18 09:30:00,
2013-02-18 04:34:00,14.8,-2.7,29.74,NNW,343,3.0,11.0,45,0.00,,---,0.00,VWS V14.00,2013-02-18 09:34:00,
2013-02-18 04:35:00,14.8,-2.7,29.74,NNW,342,5.0,11.0,45,0.00,,---,0.00,VWS V14.00,2013-02-18 09:35:00,
2013-02-18 04:39:00,14.9,-3.1,29.74,NW,324,2.0,18.0,44,0.00,,---,0.00,VWS V14.00,2013-02-18 09:39:00,
2013-02-18 04:40:00,14.9,-2.6,29.74,NW,319,6.0,18.0,45,0.00,,---,0.00,VWS V14.00,2013-02-18 09:40:00,
2013-02-18 04:44:00,14.9,-2.6,29.75,WNW,297,3.0,18.0,45,0.00,,---,0.00,VWS V14.00,2013-02-18 09:44:00,
2013-02-18 04:45:00,14.9,-2.6,29.75,NW,326,7.0,12.0,45,0.00,,---,0.00,VWS V14.00,2013-02-18 09:45:00,
2013-02-18 04:49:00,14.8,-2.7,29.75,NNW,337,4.0,12.0,45,0.00,,---,0.00,VWS V14.00,2013-02-18 09:49:00,
2013-02-18 04:50:00,14.8,-2.7,29.75,NNW,342,0.0,12.0,45,0.00,,---,0.00,VWS V14.00,2013-02-18 09:50:00,
2013-02-18 04:54:00,14.8,-2.7,29.75,NNW,347,3.0,14.0,45,0.00,,---,0.00,VWS V14.00,2013-02-18 09:54:00,
2013-02-18 04:55:00,14.8,-2.7,29.75,NW,314,6.0,17.0,45,0.00,,---,0.00,VWS V14.00,2013-02-18 09:55:00,
2013-02-18 04:59:00,14.9,-2.6,29.75,NW,323,5.0,8.0,45,0.00,,---,0.00,VWS V14.00,2013-02-18 09:59:00,
2013-02-18 05:00:00,14.9,-2.6,29.75,North,353,9.0,14.0,45,0.00,,---,0.00,VWS V14.00,2013-02-18 10:00:00,
2013-02-18 05:01:00,14.9,-2.6,29.75,NW,309,4.0,14.0,45,0.00,,---,0.00,VWS V14.00,2013-02-18 10:01:00,
2013-02-18 05:04:00,14.9,-2.6,29.75,North,359,19.0,19.0,45,0.00,,---,0.00,VWS V14.00,2013-02-18 10:04:00,
2013-02-18 05:05:00,14.9,-3.1,29.75,NNW,333,10.0,19.0,44,0.00,,---,0.00,VWS V14.00,2013-02-18 10:05:00,
2013-02-18 05:06:00,14.9,-3.1,29.75,NW,307,4.0,19.0,44,0.00,,---,0.00,VWS V14.00,2013-02-18 10:06:00,
2013-02-18 05:09:00,14.9,-2.6,29.75,NW,318,2.0,19.0,45,0.00,,---,0.00,VWS V14.00,2013-02-18 10:09:00,
2013-02-18 05:11:00,14.9,-2.6,29.75,WNW,298,2.0,19.0,45,0.00,,---,0.00,VWS V14.00,2013-02-18 10:11:00,
2013-02-18 05:14:00,14.9,-3.1,29.76,NW,322,4.0,11.0,44,0.00,,---,0.00,VWS V14.00,2013-02-18 10:14:00,
2013-02-18 05:15:00,14.9,-3.1,29.76,NW,326,11.0,19.0,44,0.00,,---,0.00,VWS V14.00,2013-02-18 10:15:00,
2013-02-18 05:16:00,15.1,-2.9,29.76,NW,314,12.0,15.0,44,0.00,,---,0.00,VWS V14.00,2013-02-18 10:16:00,
2013-02-18 05:19:00,14.9,-2.6,29.76,NNW,328,10.0,15.0,45,0.00,,---,0.00,VWS V14.00,2013-02-18 10:19:00,
2013-02-18 05:20:00,14.9,-2.6,29.76,NNW,328,13.0,16.0,45,0.00,,---,0.00,VWS V14.00,2013-02-18 10:20:00,
2013-02-18 05:21:00,14.9,-3.1,29.76,NW,314,3.0,16.0,44,0.00,,---,0.00,VWS V14.00,2013-02-18 10:21:00,
2013-02-18 05:25:00,14.9,-2.6,29.76,NW,319,3.0,19.0,45,0.00,,---,0.00,VWS V14.00,2013-02-18 10:25:00,
2013-02-18 05:26:00,14.9,-2.6,29.76,NW,321,3.0,19.0,45,0.00,,---,0.00,VWS V14.00,2013-02-18 10:26:00,
2013-02-18 05:30:00,14.9,-2.6,29.77,NW,315,3.0,16.0,45,0.00,,---,0.00,VWS V14.00,2013-02-18 10:30:00,
2013-02-18 05:31:00,14.9,-2.6,29.77,NNW,344,0.0,16.0,45,0.00,,---,0.00,VWS V14.00,2013-02-18 10:31:00,
2013-02-18 05:35:00,14.9,-2.1,29.77,NNW,330,5.0,16.0,46,0.00,,---,0.00,VWS V14.00,2013-02-18 10:35:00,
2013-02-18 05:36:00,14.8,-2.2,29.77,NW,326,9.0,16.0,46,0.00,,---,0.00,VWS V14.00,2013-02-18 10:36:00,
2013-02-18 05:40:00,14.8,-2.7,29.77,NW,326,9.0,16.0,45,0.00,,---,0.00,VWS V14.00,2013-02-18 10:40:00,
2013-02-18 05:41:00,14.8,-2.7,29.77,North,359,5.0,16.0,45,0.00,,---,0.00,VWS V14.00,2013-02-18 10:41:00,
2013-02-18 05:45:00,14.9,-2.6,29.78,North,359,7.0,9.0,45,0.00,,---,0.00,VWS V14.00,2013-02-18 10:45:00,
2013-02-18 05:46:00,14.9,-2.6,29.78,North,0,3.0,9.0,45,0.00,,---,0.00,VWS V14.00,2013-02-18 10:46:00,
2013-02-18 05:50:00,14.8,-2.7,29.78,NW,323,3.0,18.0,45,0.00,,---,0.00,VWS V14.00,2013-02-18 10:50:00,
2013-02-18 05:51:00,14.8,-2.7,29.78,NW,323,3.0,18.0,45,0.00,,---,0.00,VWS V14.00,2013-02-18 10:51:00,
2013-02-18 05:52:00,14.8,-2.7,29.78,WNW,296,10.0,18.0,45,0.00,,---,0.00,VWS V14.00,2013-02-18 10:52:00,
2013-02-18 05:55:00,14.8,-2.7,29.78,North,357,3.0,18.0,45,0.00,,---,0.00,VWS V14.00,2013-02-18 10:55:00,
2013-02-18 05:56:00,14.8,-2.7,29.78,NNW,338,9.0,18.0,45,0.00,,---,0.00,VWS V14.00,2013-02-18 10:56:00,
2013-02-18 05:57:00,14.8,-2.7,29.78,NNW,333,12.0,18.0,45,0.00,,---,0.00,VWS V14.00,2013-02-18 10:57:00,
2013-02-18 06:00:00,14.8,-4.6,29.79,NW,317,4.0,16.0,41,0.00,,---,0.00,VWS V14.00,2013-02-18 11:00:00,
2013-02-18 06:01:00,14.8,-2.7,29.79,NNW,346,11.0,16.0,45,0.00,,---,0.00,VWS V14.00,2013-02-18 11:01:00,
2013-02-18 06:02:00,14.8,-2.7,29.79,NW,307,6.0,16.0,45,0.00,,---,0.00,VWS V14.00,2013-02-18 11:02:00,
2013-02-18 06:05:00,14.8,-2.7,29.79,NNW,339,9.0,18.0,45,0.00,,---,0.00,VWS V14.00,2013-02-18 11:05:00,
2013-02-18 06:06:00,14.8,-2.7,29.79,NW,317,6.0,18.0,45,0.00,,---,0.00,VWS V14.00,2013-02-18 11:06:00,
2013-02-18 06:07:00,14.8,-2.7,29.79,NNW,334,7.0,18.0,45,0.00,,---,0.00,VWS V14.00,2013-02-18 11:07:00,
2013-02-18 06:11:00,14.8,-2.7,29.79,NW,326,2.0,20.0,45,0.00,,---,0.00,VWS V14.00,2013-02-18 11:11:00,
2013-02-18 06:12:00,14.8,-2.7,29.79,NW,319,7.0,20.0,45,0.00,,---,0.00,VWS V14.00,2013-02-18 11:12:00,
2013-02-18 06:15:00,14.6,-2.9,29.80,NNW,334,9.0,20.0,45,0.00,,---,0.00,VWS V14.00,2013-02-18 11:15:00,
2013-02-18 06:16:00,14.6,-2.9,29.80,WNW,303,6.0,11.0,45,0.00,,---,0.00,VWS V14.00,2013-02-18 11:16:00,
2013-02-18 06:18:00,14.6,-2.9,29.80,NNW,336,4.0,12.0,45,0.00,,---,0.00,VWS V14.00,2013-02-18 11:18:00,
2013-02-18 06:21:00,14.6,-2.9,29.80,NNW,340,1.0,12.0,45,0.00,,---,0.00,VWS V14.00,2013-02-18 11:21:00,
2013-02-18 06:23:00,14.6,-2.4,29.80,North,359,4.0,19.0,46,0.00,,---,0.00,VWS V14.00,2013-02-18 11:23:00,
2013-02-18 06:26:00,14.6,-2.9,29.80,NW,326,3.0,19.0,45,0.00,,---,0.00,VWS V14.00,2013-02-18 11:26:00,
2013-02-18 06:28:00,14.6,-2.9,29.80,WNW,302,3.0,19.0,45,0.00,,---,0.00,VWS V14.00,2013-02-18 11:28:00,
2013-02-18 06:30:00,14.6,-2.9,29.81,NNW,330,5.0,19.0,45,0.00,,---,0.00,VWS V14.00,2013-02-18 11:30:00,
2013-02-18 06:31:00,14.6,-2.9,29.81,NNW,328,3.0,6.0,45,0.00,,---,0.00,VWS V14.00,2013-02-18 11:31:00,
2013-02-18 06:33:00,14.4,-3.0,29.81,NNW,328,1.0,10.0,45,0.00,,---,0.00,VWS V14.00,2013-02-18 11:33:00,
2013-02-18 06:36:00,14.4,-3.0,29.81,NNW,339,12.0,14.0,45,0.00,,---,0.00,VWS V14.00,2013-02-18 11:36:00,
2013-02-18 06:37:00,14.4,-3.0,29.81,NNW,340,10.0,14.0,45,0.00,,---,0.00,VWS V14.00,2013-02-18 11:37:00,
2013-02-18 06:38:00,14.4,-3.0,29.81,NNW,330,7.0,14.0,45,0.00,,---,0.00,VWS V14.00,2013-02-18 11:38:00,
2013-02-18 06:41:00,14.4,-3.0,29.81,NNW,342,11.0,14.0,45,0.00,,---,0.00,VWS V14.00,2013-02-18 11:41:00,
2013-02-18 06:42:00,14.4,-3.0,29.81,NNW,330,4.0,14.0,45,0.00,,---,0.00,VWS V14.00,2013-02-18 11:42:00,
2013-02-18 06:43:00,14.4,-3.0,29.81,North,0,4.0,14.0,45,0.00,,---,0.00,VWS V14.00,2013-02-18 11:43:00,
2013-02-18 06:45:00,14.4,-3.0,29.82,WNW,302,6.0,14.0,45,0.00,,---,0.00,VWS V14.00,2013-02-18 11:45:00,
2013-02-18 06:46:00,14.4,-3.0,29.82,West,259,1.0,12.0,45,0.00,,---,0.00,VWS V14.00,2013-02-18 11:46:00,
2013-02-18 06:47:00,14.4,-3.0,29.82,NW,317,6.0,12.0,45,0.00,,---,0.00,VWS V14.00,2013-02-18 11:47:00,
2013-02-18 06:48:00,14.4,-3.0,29.82,NW,314,3.0,17.0,45,0.00,,---,0.00,VWS V14.00,2013-02-18 11:48:00,
2013-02-18 06:51:00,14.4,-3.0,29.82,NW,326,3.0,17.0,45,0.00,,---,0.00,VWS V14.00,2013-02-18 11:51:00,
2013-02-18 06:52:00,14.4,-3.0,29.82,NNW,347,5.0,17.0,45,0.00,,---,0.00,VWS V14.00,2013-02-18 11:52:00,
2013-02-18 06:53:00,14.4,-3.0,29.82,WNW,288,6.0,17.0,45,0.00,,---,0.00,VWS V14.00,2013-02-18 11:53:00,
2013-02-18 06:56:00,14.4,-3.0,29.82,WNW,297,11.0,17.0,45,0.00,,---,0.00,VWS V14.00,2013-02-18 11:56:00,
2013-02-18 06:57:00,14.4,-3.5,29.82,North,350,2.0,17.0,44,0.00,,---,0.00,VWS V14.00,2013-02-18 11:57:00,
2013-02-18 06:59:00,14.4,-3.5,29.83,NNW,333,14.0,23.0,44,0.00,,---,0.00,VWS V14.00,2013-02-18 11:59:00,
2013-02-18 07:00:00,15.9,-2.6,29.86,NW,319,2.0,22.0,43,0.00,,---,0.00,VWS V14.00,2013-02-18 12:00:00,
2013-02-18 07:01:00,14.4,-3.5,29.83,NNW,328,4.0,9.0,44,0.00,,---,0.00,VWS V14.00,2013-02-18 12:01:00,
2013-02-18 07:02:00,14.4,-3.0,29.83,NNW,339,14.0,15.0,45,0.00,,---,0.00,VWS V14.00,2013-02-18 12:02:00,
2013-02-18 07:04:00,14.4,-3.0,29.83,NNW,333,4.0,15.0,45,0.00,,---,0.00,VWS V14.00,2013-02-18 12:04:00,
2013-02-18 07:06:00,14.4,-3.5,29.83,NNW,331,7.0,15.0,44,0.00,,---,0.00,VWS V14.00,2013-02-18 12:06:00,
2013-02-18 07:07:00,14.4,-3.5,29.83,NNW,333,1.0,15.0,44,0.00,,---,0.00,VWS V14.00,2013-02-18 12:07:00,
2013-02-18 07:09:00,14.4,-3.5,29.83,NNW,333,4.0,15.0,44,0.00,,---,0.00,VWS V14.00,2013-02-18 12:09:00,
2013-02-18 07:11:00,14.4,-3.5,29.83,NW,314,9.0,15.0,44,0.00,,---,0.00,VWS V14.00,2013-02-18 12:11:00,
2013-02-18 07:12:00,14.4,-3.5,29.83,NNW,335,6.0,15.0,44,0.00,,---,0.00,VWS V14.00,2013-02-18 12:12:00,
2013-02-18 07:14:00,14.4,-3.5,29.84,NW,311,4.0,9.0,44,0.00,,---,0.00,VWS V14.00,2013-02-18 12:14:00,
2013-02-18 07:15:00,14.4,-3.5,29.84,North,352,10.0,15.0,44,0.00,,---,0.00,VWS V14.00,2013-02-18 12:15:00,
2013-02-18 07:16:00,14.6,-3.3,29.84,NW,322,2.0,9.0,44,0.00,,---,0.00,VWS V14.00,2013-02-18 12:16:00,
2013-02-18 07:17:00,14.6,-2.9,29.84,NNW,341,7.0,13.0,45,0.00,,---,0.00,VWS V14.00,2013-02-18 12:17:00,
2013-02-18 07:19:00,14.6,-2.9,29.84,North,352,7.0,13.0,45,0.00,,---,0.00,VWS V14.00,2013-02-18 12:19:00,
2013-02-18 07:21:00,14.6,-2.9,29.84,NNW,342,0.0,13.0,45,0.00,,---,0.00,VWS V14.00,2013-02-18 12:21:00,
2013-02-18 07:22:00,14.6,-2.9,29.84,NW,319,2.0,13.0,45,0.00,,---,0.00,VWS V14.00,2013-02-18 12:22:00,
2013-02-18 07:24:00,14.6,-2.9,29.84,NNW,333,4.0,13.0,45,0.00,,---,0.00,VWS V14.00,2013-02-18 12:24:00,
2013-02-18 07:26:00,14.6,-3.3,29.84,NNW,345,4.0,13.0,44,0.00,,---,0.00,VWS V14.00,2013-02-18 12:26:00,
2013-02-18 07:28:00,14.8,-3.2,29.84,NW,321,3.0,15.0,44,0.00,,---,0.00,VWS V14.00,2013-02-18 12:28:00,
2013-02-18 07:29:00,14.8,-3.2,29.84,WSW,257,3.0,6.0,44,0.00,,---,0.00,VWS V14.00,2013-02-18 12:29:00,
2013-02-18 07:30:00,14.8,-3.2,29.84,North,352,3.0,15.0,44,0.00,,---,0.00,VWS V14.00,2013-02-18 12:30:00,
2013-02-18 07:32:00,14.9,-3.1,29.84,NW,314,2.0,14.0,44,0.00,,---,0.00,VWS V14.00,2013-02-18 12:32:00,
2013-02-18 07:33:00,14.9,-3.1,29.84,NW,307,3.0,14.0,44,0.00,,---,0.00,VWS V14.00,2013-02-18 12:33:00,
2013-02-18 07:34:00,14.9,-3.1,29.84,NW,326,1.0,16.0,44,0.00,,---,0.00,VWS V14.00,2013-02-18 12:34:00,
2013-02-18 07:37:00,15.1,-2.9,29.84,NW,319,11.0,16.0,44,0.00,,---,0.00,VWS V14.00,2013-02-18 12:37:00,
2013-02-18 07:38:00,15.1,-3.4,29.84,NW,321,6.0,16.0,43,0.00,,---,0.00,VWS V14.00,2013-02-18 12:38:00,
2013-02-18 07:40:00,15.1,-2.9,29.84,NW,326,3.0,16.0,44,0.00,,---,0.00,VWS V14.00,2013-02-18 12:40:00,
2013-02-18 07:42:00,15.2,-3.3,29.84,NW,309,7.0,16.0,43,0.00,,---,0.00,VWS V14.00,2013-02-18 12:42:00,
2013-02-18 07:43:00,15.2,-3.3,29.86,NW,325,11.0,16.0,43,0.00,,---,0.00,VWS V14.00,2013-02-18 12:43:00,
2013-02-18 07:45:00,15.2,-3.3,29.86,NNW,345,2.0,7.0,43,0.00,,---,0.00,VWS V14.00,2013-02-18 12:45:00,
2013-02-18 07:47:00,15.4,-3.1,29.86,NW,306,1.0,22.0,43,0.00,,---,0.00,VWS V14.00,2013-02-18 12:47:00,
2013-02-18 07:48:00,15.4,-3.1,29.86,NNW,327,1.0,22.0,43,0.00,,---,0.00,VWS V14.00,2013-02-18 12:48:00,
2013-02-18 07:50:00,15.4,-3.1,29.86,West,281,2.0,22.0,43,0.00,,---,0.00,VWS V14.00,2013-02-18 12:50:00,
2013-02-18 07:52:00,15.6,-2.9,29.86,NW,305,1.0,22.0,43,0.00,,---,0.00,VWS V14.00,2013-02-18 12:52:00,
2013-02-18 07:53:00,15.6,-2.9,29.86,NNW,335,14.0,22.0,43,0.00,,---,0.00,VWS V14.00,2013-02-18 12:53:00,
2013-02-18 07:55:00,15.7,-3.3,29.86,NNW,335,5.0,22.0,42,0.00,,---,0.00,VWS V14.00,2013-02-18 12:55:00,
2013-02-18 07:57:00,15.7,-3.3,29.86,NNW,333,4.0,22.0,42,0.00,,---,0.00,VWS V14.00,2013-02-18 12:57:00,
2013-02-18 07:59:00,15.9,-2.6,29.86,WNW,282,8.0,22.0,43,0.00,,---,0.00,VWS V14.00,2013-02-18 12:59:00,
2013-02-18 08:00:00,15.9,-2.6,29.86,NW,323,3.0,6.0,43,0.00,,---,0.00,VWS V14.00,2013-02-18 13:00:00,
2013-02-18 08:02:00,16.1,-2.5,29.86,NW,319,4.0,12.0,43,0.00,,---,0.00,VWS V14.00,2013-02-18 13:02:00,
2013-02-18 08:04:00,16.1,-2.9,29.86,NW,325,3.0,12.0,42,0.00,,---,0.00,VWS V14.00,2013-02-18 13:04:00,
2013-02-18 08:06:00,16.1,-2.9,29.86,NW,307,6.0,14.0,42,0.00,,---,0.00,VWS V14.00,2013-02-18 13:06:00,
2013-02-18 08:07:00,16.2,-3.3,29.86,NNW,343,6.0,14.0,41,0.00,,---,0.00,VWS V14.00,2013-02-18 13:07:00,
2013-02-18 08:09:00,16.2,-3.3,29.86,NNW,345,5.0,14.0,41,0.00,,---,0.00,VWS V14.00,2013-02-18 13:09:00,
2013-02-18 08:11:00,16.2,-3.3,29.86,NW,324,14.0,18.0,41,0.00,,---,0.00,VWS V14.00,2013-02-18 13:11:00,
2013-02-18 08:12:00,16.4,-3.2,29.86,SW,236,5.0,18.0,41,0.00,,---,0.00,VWS V14.00,2013-02-18 13:12:00,
2013-02-18 08:14:00,16.4,-3.2,29.86,NNW,331,5.0,18.0,41,0.00,,---,0.00,VWS V14.00,2013-02-18 13:14:00,
2013-02-18 08:15:00,16.4,-3.2,29.86,NNW,331,5.0,18.0,41,0.00,,---,0.00,VWS V14.00,2013-02-18 13:15:00,
2013-02-18 08:16:00,16.5,-3.1,29.86,NNW,327,6.0,17.0,41,0.00,,---,0.00,VWS V14.00,2013-02-18 13:16:00,
2013-02-18 08:17:00,16.5,-4.1,29.86,NNW,337,4.0,17.0,39,0.00,,---,0.00,VWS V14.00,2013-02-18 13:17:00,
2013-02-18 08:19:00,16.7,-2.9,29.86,NNW,328,4.0,17.0,41,0.00,,---,0.00,VWS V14.00,2013-02-18 13:19:00,
2013-02-18 08:21:00,16.7,-3.4,29.86,NW,326,12.0,17.0,40,0.00,,---,0.00,VWS V14.00,2013-02-18 13:21:00,
2013-02-18 08:22:00,16.9,-3.2,29.86,NW,311,3.0,17.0,40,0.00,,---,0.00,VWS V14.00,2013-02-18 13:22:00,
2013-02-18 08:24:00,16.9,-3.2,29.86,NNW,347,6.0,17.0,40,0.00,,---,0.00,VWS V14.00,2013-02-18 13:24:00,
2013-02-18 08:26:00,17.0,-2.6,29.86,NW,315,11.0,17.0,41,0.00,,---,0.00,VWS V14.00,2013-02-18 13:26:00,
2013-02-18 08:27:00,17.0,-2.6,29.86,North,356,5.0,17.0,41,0.00,,---,0.00,VWS V14.00,2013-02-18 13:27:00,
2013-02-18 08:29:00,17.2,-2.4,29.88,North,349,13.0,13.0,41,0.00,,---,0.00,VWS V14.00,2013-02-18 13:29:00,
2013-02-18 08:30:00,19.7,-2.3,29.89,NW,326,1.0,21.0,37,0.00,,---,0.00,VWS V14.00,2013-02-18 13:30:00,
2013-02-18 08:31:00,17.2,-3.0,29.88,NW,318,3.0,15.0,40,0.00,,---,0.00,VWS V14.00,2013-02-18 13:31:00,
2013-02-18 08:32:00,17.3,-2.9,29.88,NNW,329,4.0,17.0,40,0.00,,---,0.00,VWS V14.00,2013-02-18 13:32:00,
2013-02-18 08:34:00,17.3,-3.4,29.88,NW,326,6.0,17.0,39,0.00,,---,0.00,VWS V14.00,2013-02-18 13:34:00,
2013-02-18 08:36:00,17.3,-3.4,29.88,North,0,5.0,17.0,39,0.00,,---,0.00,VWS V14.00,2013-02-18 13:36:00,
2013-02-18 08:37:00,17.5,-2.7,29.88,NNW,343,7.0,17.0,40,0.00,,---,0.00,VWS V14.00,2013-02-18 13:37:00,
2013-02-18 08:39:00,17.5,-3.8,29.88,NNW,328,4.0,18.0,38,0.00,,---,0.00,VWS V14.00,2013-02-18 13:39:00,
2013-02-18 08:41:00,17.5,-3.2,29.88,NW,324,4.0,18.0,39,0.00,,---,0.00,VWS V14.00,2013-02-18 13:41:00,
2013-02-18 08:42:00,17.5,-2.7,29.88,NNW,341,7.0,18.0,40,0.00,,---,0.00,VWS V14.00,2013-02-18 13:42:00,
2013-02-18 08:44:00,17.7,-3.0,29.88,NNW,333,2.0,4.0,39,0.00,,---,0.00,VWS V14.00,2013-02-18 13:44:00,
2013-02-18 08:45:00,17.5,-3.2,29.88,NW,305,2.0,18.0,39,0.00,,---,0.00,VWS V14.00,2013-02-18 13:45:00,
2013-02-18 08:46:00,17.7,-3.0,29.88,NNW,348,10.0,21.0,39,0.00,,---,0.00,VWS V14.00,2013-02-18 13:46:00,
2013-02-18 08:47:00,17.7,-2.5,29.88,NNW,330,13.0,21.0,40,0.00,,---,0.00,VWS V14.00,2013-02-18 13:47:00,
2013-02-18 08:50:00,17.8,-3.0,29.88,NNW,342,10.0,21.0,39,0.00,,---,0.00,VWS V14.00,2013-02-18 13:50:00,
2013-02-18 08:51:00,17.8,-3.5,29.88,North,349,5.0,23.0,38,0.00,,---,0.00,VWS V14.00,2013-02-18 13:51:00,
2013-02-18 08:52:00,17.8,-3.0,29.88,North,356,6.0,23.0,39,0.00,,---,0.00,VWS V14.00,2013-02-18 13:52:00,
2013-02-18 08:55:00,18.0,-2.8,29.88,NW,319,5.0,23.0,39,0.00,,---,0.00,VWS V14.00,2013-02-18 13:55:00,
2013-02-18 08:57:00,18.0,-2.8,29.88,NW,307,6.0,23.0,39,0.00,,---,0.00,VWS V14.00,2013-02-18 13:57:00,
2013-02-18 09:00:00,18.3,-3.0,29.89,NNW,328,10.0,14.0,38,0.00,,---,0.00,VWS V14.00,2013-02-18 14:00:00,
2013-02-18 09:02:00,18.3,-2.5,29.89,NNW,341,3.0,14.0,39,0.00,,---,0.00,VWS V14.00,2013-02-18 14:02:00,
2013-02-18 09:05:00,18.4,-3.0,29.89,NNW,334,2.0,20.0,38,0.00,,---,0.00,VWS V14.00,2013-02-18 14:05:00,
2013-02-18 09:07:00,18.4,-2.4,29.89,NNW,335,3.0,20.0,39,0.00,,---,0.00,VWS V14.00,2013-02-18 14:07:00,
2013-02-18 09:08:00,18.6,-2.8,29.89,NNW,335,4.0,20.0,38,0.00,,---,0.00,VWS V14.00,2013-02-18 14:08:00,
2013-02-18 09:10:00,18.8,-2.6,29.89,NW,314,4.0,20.0,38,0.00,,---,0.00,VWS V14.00,2013-02-18 14:10:00,
2013-02-18 09:12:00,18.8,-2.6,29.89,North,359,7.0,20.0,38,0.00,,---,0.00,VWS V14.00,2013-02-18 14:12:00,
2013-02-18 09:13:00,18.9,-2.5,29.89,NW,312,9.0,20.0,38,0.00,,---,0.00,VWS V14.00,2013-02-18 14:13:00,
2013-02-18 09:15:00,18.9,-2.5,29.89,NNW,336,4.0,11.0,38,0.00,,---,0.00,VWS V14.00,2013-02-18 14:15:00,
2013-02-18 09:17:00,18.9,-2.5,29.89,WNW,296,12.0,21.0,38,0.00,,---,0.00,VWS V14.00,2013-02-18 14:17:00,
2013-02-18 09:18:00,19.1,-2.9,29.89,NW,324,13.0,21.0,37,0.00,,---,0.00,VWS V14.00,2013-02-18 14:18:00,
2013-02-18 09:20:00,19.1,-2.9,29.89,NNW,345,7.0,21.0,37,0.00,,---,0.00,VWS V14.00,2013-02-18 14:20:00,
2013-02-18 09:22:00,19.2,-2.8,29.89,WNW,284,6.0,21.0,37,0.00,,---,0.00,VWS V14.00,2013-02-18 14:22:00,
2013-02-18 09:23:00,19.2,-2.8,29.89,NNW,339,5.0,21.0,37,0.00,,---,0.00,VWS V14.00,2013-02-18 14:23:00,
2013-02-18 09:26:00,19.4,-3.2,29.89,NNW,338,9.0,21.0,36,0.00,,---,0.00,VWS V14.00,2013-02-18 14:26:00,
2013-02-18 09:27:00,19.5,-2.5,29.89,NNW,342,1.0,21.0,37,0.00,,---,0.00,VWS V14.00,2013-02-18 14:27:00,
2013-02-18 09:28:00,19.5,-2.0,29.89,NW,312,1.0,21.0,38,0.00,,---,0.00,VWS V14.00,2013-02-18 14:28:00,
2013-02-18 09:30:00,19.7,-2.3,29.89,NW,326,1.0,21.0,37,0.00,,---,0.00,VWS V14.00,2013-02-18 14:30:00,
2013-02-18 09:31:00,19.9,-2.7,29.89,NNW,338,5.0,15.0,36,0.00,,---,0.00,VWS V14.00,2013-02-18 14:31:00,
2013-02-18 09:32:00,19.9,-2.7,29.89,NW,326,5.0,15.0,36,0.00,,---,0.00,VWS V14.00,2013-02-18 14:32:00,
2013-02-18 09:33:00,20.0,-2.1,29.89,NW,321,3.0,15.0,37,0.00,,---,0.00,VWS V14.00,2013-02-18 14:33:00,
2013-02-18 09:36:00,20.2,-1.9,29.89,NNW,335,5.0,16.0,37,0.00,,---,0.00,VWS V14.00,2013-02-18 14:36:00,
2013-02-18 09:38:00,20.3,-2.4,29.89,NNW,330,7.0,16.0,36,0.00,,---,0.00,VWS V14.00,2013-02-18 14:38:00,
2013-02-18 09:41:00,20.3,-3.0,29.89,NW,326,6.0,18.0,35,0.00,,---,0.00,VWS V14.00,2013-02-18 14:41:00,
2013-02-18 09:43:00,20.3,-3.0,29.89,NNW,328,11.0,18.0,35,0.00,,---,0.00,VWS V14.00,2013-02-18 14:43:00,
2013-02-18 09:45:00,20.3,-3.0,29.89,NNE,22,7.0,19.0,35,0.00,,---,0.00,VWS V14.00,2013-02-18 14:45:00,
2013-02-18 09:46:00,20.5,-3.4,29.89,NNW,338,5.0,16.0,34,0.00,,---,0.00,VWS V14.00,2013-02-18 14:46:00,
2013-02-18 09:48:00,20.6,-2.1,29.89,NNW,333,4.0,16.0,36,0.00,,---,0.00,VWS V14.00,2013-02-18 14:48:00,
2013-02-18 09:51:00,20.8,-2.5,29.89,NNW,331,9.0,16.0,35,0.00,,---,0.00,VWS V14.00,2013-02-18 14:51:00,
2013-02-18 09:53:00,21.0,-2.3,29.89,NNW,347,16.0,19.0,35,0.00,,---,0.00,VWS V14.00,2013-02-18 14:53:00,
2013-02-18 09:56:00,21.0,-2.3,29.89,NW,309,6.0,19.0,35,0.00,,---,0.00,VWS V14.00,2013-02-18 14:56:00,
2013-02-18 09:58:00,21.1,-3.5,29.89,NNW,348,14.0,19.0,33,0.00,,---,0.00,VWS V14.00,2013-02-18 14:58:00,
2013-02-18 10:00:00,21.1,-3.5,29.89,NNW,342,12.0,24.0,33,0.00,,---,0.00,VWS V14.00,2013-02-18 15:00:00,
2013-02-18 10:01:00,21.1,-4.1,29.89,NNW,340,5.0,16.0,32,0.00,,---,0.00,VWS V14.00,2013-02-18 15:01:00,
2013-02-18 10:03:00,21.4,-2.6,29.89,NNW,341,4.0,16.0,34,0.00,,---,0.00,VWS V14.00,2013-02-18 15:03:00,
2013-02-18 10:04:00,21.4,-3.2,29.89,NNW,344,5.0,16.0,33,0.00,,---,0.00,VWS V14.00,2013-02-18 15:04:00,
2013-02-18 10:06:00,21.6,-3.7,29.89,NW,307,9.0,16.0,32,0.00,,---,0.00,VWS V14.00,2013-02-18 15:06:00,
2013-02-18 10:08:00,21.8,-3.5,29.89,NNW,335,14.0,16.0,32,0.00,,---,0.00,VWS V14.00,2013-02-18 15:08:00,
2013-02-18 10:09:00,21.8,-3.5,29.89,NNW,340,6.0,16.0,32,0.00,,---,0.00,VWS V14.00,2013-02-18 15:09:00,
2013-02-18 10:11:00,21.8,-4.2,29.89,NNW,340,5.0,18.0,31,0.00,,---,0.00,VWS V14.00,2013-02-18 15:11:00,
2013-02-18 10:14:00,21.8,-4.2,29.90,NNW,346,12.0,18.0,31,0.00,,---,0.00,VWS V14.00,2013-02-18 15:14:00,
2013-02-18 10:15:00,21.9,-4.1,29.90,NNW,330,6.0,18.0,31,0.00,,---,0.00,VWS V14.00,2013-02-18 15:15:00,
2013-02-18 10:16:00,22.1,-3.2,29.90,NNW,329,8.0,18.0,32,0.00,,---,0.00,VWS V14.00,2013-02-18 15:16:00,
2013-02-18 10:19:00,22.2,-4.5,29.90,NNW,333,6.0,20.0,30,0.00,,---,0.00,VWS V14.00,2013-02-18 15:19:00,
2013-02-18 10:21:00,22.2,-5.9,29.90,NW,323,24.0,24.0,28,0.00,,---,0.00,VWS V14.00,2013-02-18 15:21:00,
2013-02-18 10:24:00,22.2,-5.9,29.90,North,350,15.0,24.0,28,0.00,,---,0.00,VWS V14.00,2013-02-18 15:24:00,
2013-02-18 10:26:00,22.4,-5.8,29.90,NNW,335,3.0,24.0,28,0.00,,---,0.00,VWS V14.00,2013-02-18 15:26:00,
2013-02-18 10:29:00,22.7,-5.5,29.90,NW,321,4.0,24.0,28,0.00,,---,0.00,VWS V14.00,2013-02-18 15:29:00,
2013-02-18 10:30:00,22.7,-4.8,29.90,NW,324,0.0,24.0,29,0.00,,---,0.00,VWS V14.00,2013-02-18 15:30:00,
2013-02-18 10:31:00,23.0,-5.2,29.90,West,269,10.0,14.0,28,0.00,,---,0.00,VWS V14.00,2013-02-18 15:31:00,
2013-02-18 10:34:00,23.3,-5.0,29.90,NNW,327,6.0,15.0,28,0.00,,---,0.00,VWS V14.00,2013-02-18 15:34:00,
2013-02-18 10:37:00,23.3,-5.7,29.90,NW,311,7.0,19.0,27,0.00,,---,0.00,VWS V14.00,2013-02-18 15:37:00,
2013-02-18 10:39:00,23.5,-5.6,29.90,North,0,9.0,19.0,27,0.00,,---,0.00,VWS V14.00,2013-02-18 15:39:00,
2013-02-18 10:42:00,23.6,-4.7,29.90,North,356,12.0,19.0,28,0.00,,---,0.00,VWS V14.00,2013-02-18 15:42:00,
2013-02-18 10:44:00,23.9,-4.4,29.91,WNW,286,5.0,19.0,28,0.00,,---,0.00,VWS V14.00,2013-02-18 15:44:00,
2013-02-18 10:45:00,23.9,-4.4,29.91,WNW,286,5.0,19.0,28,0.00,,---,0.00,VWS V14.00,2013-02-18 15:45:00,
2013-02-18 10:47:00,24.1,-5.0,29.91,NNW,330,3.0,11.0,27,0.00,,---,0.00,VWS V14.00,2013-02-18 15:47:00,
2013-02-18 10:49:00,24.2,-4.9,29.91,North,0,6.0,17.0,27,0.00,,---,0.00,VWS V14.00,2013-02-18 15:49:00,
2013-02-18 10:52:00,24.2,-4.9,29.91,NNW,327,4.0,17.0,27,0.00,,---,0.00,VWS V14.00,2013-02-18 15:52:00,
2013-02-18 10:54:00,24.5,-3.9,29.91,NNW,338,2.0,17.0,28,0.00,,---,0.00,VWS V14.00,2013-02-18 15:54:00,
2013-02-18 10:57:00,24.7,-4.5,29.91,NW,309,5.0,17.0,27,0.00,,---,0.00,VWS V14.00,2013-02-18 15:57:00,
2013-02-18 11:00:00,24.8,-4.4,29.91,NNW,337,3.0,6.0,27,0.00,,---,0.00,VWS V14.00,2013-02-18 16:00:00,
2013-02-18 11:02:00,24.8,-4.4,29.91,North,0,10.0,13.0,27,0.00,,---,0.00,VWS V14.00,2013-02-18 16:02:00,
2013-02-18 11:05:00,25.0,-4.2,29.91,NW,314,17.0,17.0,27,0.00,,---,0.00,VWS V14.00,2013-02-18 16:05:00,
2013-02-18 11:07:00,25.0,-5.0,29.91,NNW,332,13.0,17.0,26,0.00,,---,0.00,VWS V14.00,2013-02-18 16:07:00,
2013-02-18 11:10:00,25.0,-4.2,29.91,North,354,8.0,18.0,27,0.00,,---,0.00,VWS V14.00,2013-02-18 16:10:00,
2013-02-18 11:12:00,25.0,-5.0,29.91,NNW,340,10.0,18.0,26,0.00,,---,0.00,VWS V14.00,2013-02-18 16:12:00,
2013-02-18 11:15:00,25.1,-4.9,29.90,NNW,333,6.0,13.0,26,0.00,,---,0.00,VWS V14.00,2013-02-18 16:15:00,
2013-02-18 11:17:00,25.3,-3.2,29.90,NNW,333,15.0,16.0,28,0.00,,---,0.00,VWS V14.00,2013-02-18 16:17:00,
2013-02-18 11:20:00,25.3,-4.8,29.90,NW,323,5.0,17.0,26,0.00,,---,0.00,VWS V14.00,2013-02-18 16:20:00,
2013-02-18 11:22:00,25.4,-4.7,29.90,NNE,17,1.0,17.0,26,0.00,,---,0.00,VWS V14.00,2013-02-18 16:22:00,
2013-02-18 11:25:00,25.6,-4.5,29.90,NNW,339,2.0,17.0,26,0.00,,---,0.00,VWS V14.00,2013-02-18 16:25:00,
2013-02-18 11:27:00,25.7,-3.6,29.90,North,0,4.0,17.0,27,0.00,,---,0.00,VWS V14.00,2013-02-18 16:27:00,
2013-02-18 11:30:00,25.7,-5.2,29.91,North,1,7.0,15.0,25,0.00,,---,0.00,VWS V14.00,2013-02-18 16:30:00,
2013-02-18 11:32:00,25.7,-2.9,29.91,NNW,333,9.0,15.0,28,0.00,,---,0.00,VWS V14.00,2013-02-18 16:32:00,
2013-02-18 11:35:00,25.7,-4.4,29.91,NNW,331,10.0,15.0,26,0.00,,---,0.00,VWS V14.00,2013-02-18 16:35:00,
2013-02-18 11:38:00,26.0,-4.2,29.91,NNW,327,4.0,15.0,26,0.00,,---,0.00,VWS V14.00,2013-02-18 16:38:00,
2013-02-18 11:40:00,26.1,-4.1,29.91,North,355,3.0,15.0,26,0.00,,---,0.00,VWS V14.00,2013-02-18 16:40:00,
2013-02-18 11:43:00,26.4,-3.8,29.91,West,278,2.0,15.0,26,0.00,,---,0.00,VWS V14.00,2013-02-18 16:43:00,
2013-02-18 11:45:00,26.9,-4.2,29.91,North,3,2.0,11.0,25,0.00,,---,0.00,VWS V14.00,2013-02-18 16:45:00,
2013-02-18 11:48:00,26.9,-5.1,29.91,NW,321,9.0,16.0,24,0.00,,---,0.00,VWS V14.00,2013-02-18 16:48:00,
2013-02-18 11:50:00,26.9,-5.9,29.91,NNW,333,5.0,17.0,23,0.00,,---,0.00,VWS V14.00,2013-02-18 16:50:00,
2013-02-18 11:51:00,26.9,-5.9,29.91,NNW,333,3.0,17.0,23,0.00,,---,0.00,VWS V14.00,2013-02-18 16:51:00,
2013-02-18 11:53:00,27.0,-5.0,29.91,NNW,348,3.0,17.0,24,0.00,,---,0.00,VWS V14.00,2013-02-18 16:53:00,
2013-02-18 11:56:00,27.2,-4.8,29.91,NNW,330,12.0,17.0,24,0.00,,---,0.00,VWS V14.00,2013-02-18 16:56:00,
2013-02-18 11:58:00,27.2,-4.8,29.91,NW,320,9.0,17.0,24,0.00,,---,0.00,VWS V14.00,2013-02-18 16:58:00,
2013-02-18 12:00:00,27.2,-5.7,29.91,North,349,10.0,17.0,23,0.00,,---,0.00,VWS V14.00,2013-02-18 17:00:00,
2013-02-18 12:01:00,27.2,-4.8,29.91,NW,321,6.0,11.0,24,0.00,,---,0.00,VWS V14.00,2013-02-18 17:01:00,
2013-02-18 12:03:00,27.5,-4.6,29.91,NNW,342,1.0,11.0,24,0.00,,---,0.00,VWS V14.00,2013-02-18 17:03:00,
2013-02-18 12:06:00,27.6,-4.5,29.91,NW,322,2.0,12.0,24,0.00,,---,0.00,VWS V14.00,2013-02-18 17:06:00,
2013-02-18 12:08:00,27.8,-5.2,29.91,North,356,19.0,19.0,23,0.00,,---,0.00,VWS V14.00,2013-02-18 17:08:00,
2013-02-18 12:11:00,27.8,-5.2,29.91,NNW,327,9.0,19.0,23,0.00,,---,0.00,VWS V14.00,2013-02-18 17:11:00,
2013-02-18 12:13:00,27.6,-6.3,29.92,NW,307,5.0,19.0,22,0.00,,---,0.00,VWS V14.00,2013-02-18 17:13:00,
2013-02-18 12:15:00,27.6,-6.3,29.92,NNW,339,6.0,19.0,22,0.00,,---,0.00,VWS V14.00,2013-02-18 17:15:00,
2013-02-18 12:16:00,27.6,-5.3,29.92,NNW,344,11.0,12.0,23,0.00,,---,0.00,VWS V14.00,2013-02-18 17:16:00,
2013-02-18 12:18:00,27.8,-6.1,29.92,NNW,334,4.0,14.0,22,0.00,,---,0.00,VWS V14.00,2013-02-18 17:18:00,
2013-02-18 12:21:00,27.8,-5.2,29.92,NW,326,9.0,15.0,23,0.00,,---,0.00,VWS V14.00,2013-02-18 17:21:00,
2013-02-18 12:23:00,27.9,-5.1,29.92,NNW,331,0.0,15.0,23,0.00,,---,0.00,VWS V14.00,2013-02-18 17:23:00,
2013-02-18 12:26:00,28.2,-4.8,29.92,NNW,328,5.0,15.0,23,0.00,,---,0.00,VWS V14.00,2013-02-18 17:26:00,
2013-02-18 12:28:00,28.5,-3.7,29.92,West,278,5.0,15.0,24,0.00,,---,0.00,VWS V14.00,2013-02-18 17:28:00,
2013-02-18 12:30:00,28.5,-3.7,29.92,NNW,332,15.0,17.0,24,0.00,,---,0.00,VWS V14.00,2013-02-18 17:30:00,
2013-02-18 12:31:00,28.5,-4.6,29.92,WNW,286,2.0,15.0,23,0.00,,---,0.00,VWS V14.00,2013-02-18 17:31:00,
2013-02-18 12:33:00,28.7,-4.4,29.92,West,276,2.0,15.0,23,0.00,,---,0.00,VWS V14.00,2013-02-18 17:33:00,
2013-02-18 12:36:00,28.8,-4.3,29.92,NNW,347,6.0,16.0,23,0.00,,---,0.00,VWS V14.00,2013-02-18 17:36:00,
2013-02-18 12:38:00,28.5,-7.5,29.92,NNW,340,7.0,20.0,20,0.00,,---,0.00,VWS V14.00,2013-02-18 17:38:00,
2013-02-18 12:41:00,28.4,-6.5,29.92,North,352,6.0,20.0,21,0.00,,---,0.00,VWS V14.00,2013-02-18 17:41:00,
2013-02-18 12:43:00,28.5,-4.6,29.92,WNW,286,4.0,20.0,23,0.00,,---,0.00,VWS V14.00,2013-02-18 17:43:00,
2013-02-18 12:45:00,28.7,-4.4,29.92,West,264,16.0,20.0,23,0.00,,---,0.00,VWS V14.00,2013-02-18 17:45:00,
2013-02-18 12:46:00,28.7,-5.3,29.92,NW,314,5.0,16.0,22,0.00,,---,0.00,VWS V14.00,2013-02-18 17:46:00,
2013-02-18 12:49:00,28.7,-5.3,29.92,NNW,328,5.0,16.0,22,0.00,,---,0.00,VWS V14.00,2013-02-18 17:49:00,
2013-02-18 12:51:00,28.5,-5.5,29.92,NNW,332,10.0,16.0,22,0.00,,---,0.00,VWS V14.00,2013-02-18 17:51:00,
2013-02-18 12:54:00,28.7,-4.4,29.92,North,352,12.0,16.0,23,0.00,,---,0.00,VWS V14.00,2013-02-18 17:54:00,
2013-02-18 12:56:00,28.7,-5.3,29.92,NNW,328,5.0,16.0,22,0.00,,---,0.00,VWS V14.00,2013-02-18 17:56:00,
2013-02-18 12:59:00,28.8,-5.2,29.92,North,351,5.0,7.0,22,0.00,,---,0.00,VWS V14.00,2013-02-18 17:59:00,
2013-02-18 13:00:00,28.8,-5.2,29.92,North,359,5.0,16.0,22,0.00,,---,0.00,VWS V14.00,2013-02-18 18:00:00,
2013-02-18 13:01:00,28.8,-5.2,29.92,WNW,300,8.0,14.0,22,0.00,,---,0.00,VWS V14.00,2013-02-18 18:01:00,
2013-02-18 13:02:00,28.7,-5.3,29.92,NW,311,4.0,14.0,22,0.00,,---,0.00,VWS V14.00,2013-02-18 18:02:00,
2013-02-18 13:04:00,28.5,-6.5,29.92,North,1,4.0,15.0,21,0.00,,---,0.00,VWS V14.00,2013-02-18 18:04:00,
2013-02-18 13:06:00,28.5,-6.5,29.92,North,356,10.0,19.0,21,0.00,,---,0.00,VWS V14.00,2013-02-18 18:06:00,
2013-02-18 13:07:00,28.5,-6.5,29.92,NNW,331,13.0,19.0,21,0.00,,---,0.00,VWS V14.00,2013-02-18 18:07:00,
2013-02-18 13:09:00,28.7,-5.3,29.92,NW,307,12.0,19.0,22,0.00,,---,0.00,VWS V14.00,2013-02-18 18:09:00,
2013-02-18 13:11:00,28.7,-5.3,29.92,NNW,331,11.0,19.0,22,0.00,,---,0.00,VWS V14.00,2013-02-18 18:11:00,
2013-02-18 13:12:00,28.7,-5.3,29.92,NNW,336,7.0,19.0,22,0.00,,---,0.00,VWS V14.00,2013-02-18 18:12:00,
2013-02-18 13:14:00,28.7,-7.3,29.92,NW,322,4.0,10.0,20,0.00,,---,0.00,VWS V14.00,2013-02-18 18:14:00,
2013-02-18 13:15:00,28.7,-7.3,29.92,NW,324,10.0,19.0,20,0.00,,---,0.00,VWS V14.00,2013-02-18 18:15:00,
2013-02-18 13:16:00,28.8,-5.2,29.92,NNW,329,2.0,15.0,22,0.00,,---,0.00,VWS V14.00,2013-02-18 18:16:00,
2013-02-18 13:17:00,28.8,-5.2,29.92,NNW,334,2.0,15.0,22,0.00,,---,0.00,VWS V14.00,2013-02-18 18:17:00,
2013-02-18 13:19:00,29.0,-5.1,29.92,WSW,238,5.0,18.0,22,0.00,,---,0.00,VWS V14.00,2013-02-18 18:19:00,
2013-02-18 13:22:00,29.1,-5.0,29.92,NNW,330,3.0,18.0,22,0.00,,---,0.00,VWS V14.00,2013-02-18 18:22:00,
2013-02-18 13:24:00,29.4,-3.8,29.92,North,6,3.0,18.0,23,0.00,,---,0.00,VWS V14.00,2013-02-18 18:24:00,
2013-02-18 13:27:00,29.7,-4.5,29.92,NW,316,14.0,18.0,22,0.00,,---,0.00,VWS V14.00,2013-02-18 18:27:00,
2013-02-18 13:30:00,29.5,-5.6,29.92,NNW,348,4.0,11.0,21,0.00,,---,0.00,VWS V14.00,2013-02-18 18:30:00,
2013-02-18 13:32:00,29.5,-5.6,29.92,NNW,333,11.0,18.0,21,0.00,,---,0.00,VWS V14.00,2013-02-18 18:32:00,
2013-02-18 13:35:00,29.5,-5.6,29.92,NNW,330,3.0,18.0,21,0.00,,---,0.00,VWS V14.00,2013-02-18 18:35:00,
2013-02-18 13:37:00,29.4,-5.7,29.92,North,1,5.0,18.0,21,0.00,,---,0.00,VWS V14.00,2013-02-18 18:37:00,
2013-02-18 13:40:00,29.7,-3.5,29.92,SW,222,4.0,18.0,23,0.00,,---,0.00,VWS V14.00,2013-02-18 18:40:00,
2013-02-18 13:42:00,30.0,-5.2,29.92,NW,313,3.0,18.0,21,0.00,,---,0.00,VWS V14.00,2013-02-18 18:42:00,
2013-02-18 13:45:00,30.3,-4.0,29.92,NNW,343,3.0,10.0,22,0.00,,---,0.00,VWS V14.00,2013-02-18 18:45:00,
2013-02-18 13:47:00,30.4,-3.9,29.92,NW,316,3.0,10.0,22,0.00,,---,0.00,VWS V14.00,2013-02-18 18:47:00,
2013-02-18 13:48:00,30.4,-3.9,29.92,North,354,5.0,11.0,22,0.00,,---,0.00,VWS V14.00,2013-02-18 18:48:00,
2013-02-18 13:50:00,30.3,-4.0,29.92,NW,323,16.0,16.0,22,0.00,,---,0.00,VWS V14.00,2013-02-18 18:50:00,
2013-02-18 13:52:00,30.1,-4.1,29.92,NW,323,15.0,16.0,22,0.00,,---,0.00,VWS V14.00,2013-02-18 18:52:00,
2013-02-18 13:53:00,30.1,-6.1,29.92,NNW,340,10.0,16.0,20,0.00,,---,0.00,VWS V14.00,2013-02-18 18:53:00,
2013-02-18 13:55:00,30.0,-6.2,29.92,NW,310,3.0,17.0,20,0.00,,---,0.00,VWS V14.00,2013-02-18 18:55:00,
2013-02-18 13:57:00,30.0,-4.2,29.92,NNW,330,5.0,17.0,22,0.00,,---,0.00,VWS V14.00,2013-02-18 18:57:00,
2013-02-18 13:58:00,30.0,-5.2,29.92,NNW,330,4.0,17.0,21,0.00,,---,0.00,VWS V14.00,2013-02-18 18:58:00,
2013-02-18 14:00:00,30.1,-5.1,29.93,NNW,328,12.0,12.0,21,0.00,,---,0.00,VWS V14.00,2013-02-18 19:00:00,
2013-02-18 14:03:00,30.0,-5.2,29.93,North,352,13.0,18.0,21,0.00,,---,0.00,VWS V14.00,2013-02-18 19:03:00,
2013-02-18 14:05:00,29.8,-4.4,29.93,NNW,347,10.0,22.0,22,0.00,,---,0.00,VWS V14.00,2013-02-18 19:05:00,
2013-02-18 14:08:00,29.7,-5.4,29.93,NNW,337,2.0,22.0,21,0.00,,---,0.00,VWS V14.00,2013-02-18 19:08:00,
2013-02-18 14:10:00,29.8,-5.4,29.93,NNW,333,9.0,22.0,21,0.00,,---,0.00,VWS V14.00,2013-02-18 19:10:00,
2013-02-18 14:13:00,29.7,-6.4,29.93,NNW,335,10.0,22.0,20,0.00,,---,0.00,VWS V14.00,2013-02-18 19:13:00,
2013-02-18 14:14:00,29.7,-6.4,29.94,North,359,13.0,22.0,20,0.00,,---,0.00,VWS V14.00,2013-02-18 19:14:00,
2013-02-18 14:15:00,29.5,-6.6,29.94,North,359,8.0,18.0,20,0.00,,---,0.00,VWS V14.00,2013-02-18 19:15:00,
2013-02-18 14:18:00,29.5,-4.7,29.94,North,359,17.0,18.0,22,0.00,,---,0.00,VWS V14.00,2013-02-18 19:18:00,
2013-02-18 14:19:00,29.5,-5.6,29.94,NNW,334,6.0,19.0,21,0.00,,---,0.00,VWS V14.00,2013-02-18 19:19:00,
2013-02-18 14:20:00,29.5,-5.6,29.94,NW,321,3.0,19.0,21,0.00,,---,0.00,VWS V14.00,2013-02-18 19:20:00,
2013-02-18 14:23:00,29.5,-5.6,29.94,NNW,335,12.0,19.0,21,0.00,,---,0.00,VWS V14.00,2013-02-18 19:23:00,
2013-02-18 14:24:00,29.5,-4.7,29.94,NNW,345,10.0,19.0,22,0.00,,---,0.00,VWS V14.00,2013-02-18 19:24:00,
2013-02-18 14:26:00,29.7,-5.4,29.94,NNW,338,3.0,19.0,21,0.00,,---,0.00,VWS V14.00,2013-02-18 19:26:00,
2013-02-18 14:28:00,30.0,-4.2,29.94,WNW,285,16.0,19.0,22,0.00,,---,0.00,VWS V14.00,2013-02-18 19:28:00,
2013-02-18 14:29:00,30.1,-4.1,29.94,NW,323,4.0,4.0,22,0.00,,---,0.00,VWS V14.00,2013-02-18 19:29:00,
2013-02-18 14:30:00,30.1,-4.1,29.94,NNW,329,4.0,19.0,22,0.00,,---,0.00,VWS V14.00,2013-02-18 19:30:00,
2013-02-18 14:31:00,30.1,-6.1,29.94,NW,326,5.0,10.0,20,0.00,,---,0.00,VWS V14.00,2013-02-18 19:31:00,
2013-02-18 14:34:00,30.0,-6.2,29.94,NNW,329,9.0,14.0,20,0.00,,---,0.00,VWS V14.00,2013-02-18 19:34:00,
2013-02-18 14:36:00,29.8,-6.4,29.94,North,355,1.0,14.0,20,0.00,,---,0.00,VWS V14.00,2013-02-18 19:36:00,
2013-02-18 14:39:00,29.8,-6.4,29.94,NW,318,6.0,14.0,20,0.00,,---,0.00,VWS V14.00,2013-02-18 19:39:00,
2013-02-18 14:41:00,29.8,-5.4,29.94,NNW,334,3.0,19.0,21,0.00,,---,0.00,VWS V14.00,2013-02-18 19:41:00,
2013-02-18 14:44:00,30.1,-3.2,29.95,NNW,332,0.0,19.0,23,0.00,,---,0.00,VWS V14.00,2013-02-18 19:44:00,
2013-02-18 14:45:00,30.1,-3.2,29.95,West,259,1.0,19.0,23,0.00,,---,0.00,VWS V14.00,2013-02-18 19:45:00,
2013-02-18 14:46:00,30.3,-4.9,29.95,NNW,345,6.0,13.0,21,0.00,,---,0.00,VWS V14.00,2013-02-18 19:46:00,
2013-02-18 14:49:00,30.1,-5.1,29.95,NW,309,3.0,16.0,21,0.00,,---,0.00,VWS V14.00,2013-02-18 19:49:00,
2013-02-18 14:50:00,30.1,-5.1,29.95,West,270,6.0,16.0,21,0.00,,---,0.00,VWS V14.00,2013-02-18 19:50:00,
2013-02-18 14:51:00,30.1,-5.1,29.95,West,280,4.0,16.0,21,0.00,,---,0.00,VWS V14.00,2013-02-18 19:51:00,
2013-02-18 14:54:00,30.3,-3.0,29.95,West,275,3.0,16.0,23,0.00,,---,0.00,VWS V14.00,2013-02-18 19:54:00,
2013-02-18 14:55:00,30.3,-4.0,29.95,NW,305,5.0,16.0,22,0.00,,---,0.00,VWS V14.00,2013-02-18 19:55:00,
2013-02-18 14:56:00,30.3,-4.0,29.95,NNW,338,4.0,16.0,22,0.00,,---,0.00,VWS V14.00,2013-02-18 19:56:00,
2013-02-18 14:59:00,30.1,-5.1,29.95,NW,326,2.0,16.0,21,0.00,,---,0.00,VWS V14.00,2013-02-18 19:59:00,
2013-02-18 15:00:00,30.1,-5.1,29.95,North,353,4.0,8.0,21,0.00,,---,0.00,VWS V14.00,2013-02-18 20:00:00,
2013-02-18 15:01:00,30.1,-4.1,29.95,WSW,250,1.0,8.0,22,0.00,,---,0.00,VWS V14.00,2013-02-18 20:01:00,
2013-02-18 15:04:00,30.4,-3.9,29.95,WSW,248,1.0,11.0,22,0.00,,---,0.00,VWS V14.00,2013-02-18 20:04:00,
2013-02-18 15:05:00,30.4,-3.9,29.95,NNW,338,5.0,11.0,22,0.00,,---,0.00,VWS V14.00,2013-02-18 20:05:00,
2013-02-18 15:06:00,30.6,-4.7,29.95,NNW,332,2.0,11.0,21,0.00,,---,0.00,VWS V14.00,2013-02-18 20:06:00,
2013-02-18 15:09:00,30.6,-3.7,29.95,NW,316,5.0,11.0,22,0.00,,---,0.00,VWS V14.00,2013-02-18 20:09:00,
2013-02-18 15:10:00,30.4,-4.8,29.95,NW,326,4.0,11.0,21,0.00,,---,0.00,VWS V14.00,2013-02-18 20:10:00,
2013-02-18 15:11:00,30.4,-4.8,29.95,NW,326,1.0,11.0,21,0.00,,---,0.00,VWS V14.00,2013-02-18 20:11:00,
2013-02-18 15:14:00,30.6,-3.7,29.95,WSW,255,14.0,15.0,22,0.00,,---,0.00,VWS V14.00,2013-02-18 20:14:00,
2013-02-18 15:15:00,30.6,-3.7,29.95,West,277,9.0,15.0,22,0.00,,---,0.00,VWS V14.00,2013-02-18 20:15:00,
2013-02-18 15:16:00,30.6,-5.7,29.95,SSW,207,7.0,12.0,20,0.00,,---,0.00,VWS V14.00,2013-02-18 20:16:00,
2013-02-18 15:19:00,30.3,-5.9,29.95,NNW,343,7.0,14.0,20,0.00,,---,0.00,VWS V14.00,2013-02-18 20:19:00,
2013-02-18 15:21:00,30.3,-4.9,29.95,NNW,345,5.0,14.0,21,0.00,,---,0.00,VWS V14.00,2013-02-18 20:21:00,
2013-02-18 15:24:00,30.3,-4.9,29.95,West,271,2.0,14.0,21,0.00,,---,0.00,VWS V14.00,2013-02-18 20:24:00,
2013-02-18 15:26:00,30.4,-4.8,29.95,WNW,299,1.0,14.0,21,0.00,,---,0.00,VWS V14.00,2013-02-18 20:26:00,
2013-02-18 15:27:00,30.4,-4.8,29.95,NNW,336,2.0,14.0,21,0.00,,---,0.00,VWS V14.00,2013-02-18 20:27:00,
2013-02-18 15:29:00,30.4,-4.8,29.95,West,262,17.0,18.0,21,0.00,,---,0.00,VWS V14.00,2013-02-18 20:29:00,
2013-02-18 15:30:00,30.4,-4.8,29.95,West,269,4.0,14.0,21,0.00,,---,0.00,VWS V14.00,2013-02-18 20:30:00,
2013-02-18 15:31:00,30.6,-4.7,29.95,North,351,1.0,18.0,21,0.00,,---,0.00,VWS V14.00,2013-02-18 20:31:00,
2013-02-18 15:32:00,30.6,-4.7,29.95,West,273,2.0,18.0,21,0.00,,---,0.00,VWS V14.00,2013-02-18 20:32:00,
2013-02-18 15:34:00,30.7,-5.6,29.95,NNW,345,2.0,18.0,20,0.00,,---,0.00,VWS V14.00,2013-02-18 20:34:00,
2013-02-18 15:36:00,30.7,-4.6,29.95,West,280,0.0,18.0,21,0.00,,---,0.00,VWS V14.00,2013-02-18 20:36:00,
2013-02-18 15:37:00,30.7,-4.6,29.95,WNW,285,1.0,18.0,21,0.00,,---,0.00,VWS V14.00,2013-02-18 20:37:00,
2013-02-18 15:40:00,30.9,-4.4,29.95,NNW,328,2.0,18.0,21,0.00,,---,0.00,VWS V14.00,2013-02-18 20:40:00,
2013-02-18 15:41:00,30.9,-4.4,29.95,NW,323,3.0,18.0,21,0.00,,---,0.00,VWS V14.00,2013-02-18 20:41:00,
2013-02-18 15:42:00,30.9,-4.4,29.95,NW,324,2.0,18.0,21,0.00,,---,0.00,VWS V14.00,2013-02-18 20:42:00,
2013-02-18 15:45:00,30.7,-5.6,29.97,NNW,332,6.0,12.0,20,0.00,,---,0.00,VWS V14.00,2013-02-18 20:45:00,
2013-02-18 15:46:00,30.6,-6.8,29.97,NNW,336,9.0,13.0,19,0.00,,---,0.00,VWS V14.00,2013-02-18 20:46:00,
2013-02-18 15:47:00,30.4,-6.9,29.97,NW,325,4.0,13.0,19,0.00,,---,0.00,VWS V14.00,2013-02-18 20:47:00,
2013-02-18 15:50:00,30.3,-5.9,29.97,NNW,328,2.0,15.0,20,0.00,,---,0.00,VWS V14.00,2013-02-18 20:50:00,
2013-02-18 15:52:00,30.3,-4.9,29.97,SW,219,5.0,15.0,21,0.00,,---,0.00,VWS V14.00,2013-02-18 20:52:00,
2013-02-18 15:55:00,30.3,-7.0,29.97,West,280,2.0,15.0,19,0.00,,---,0.00,VWS V14.00,2013-02-18 20:55:00,
2013-02-18 15:57:00,30.3,-5.9,29.97,North,0,5.0,15.0,20,0.00,,---,0.00,VWS V14.00,2013-02-18 20:57:00,
2013-02-18 16:00:00,30.3,-5.9,29.97,NW,315,2.0,4.0,20,0.00,,---,0.00,VWS V14.00,2013-02-18 21:00:00,
2013-02-18 16:02:00,30.3,-5.9,29.97,NNW,341,3.0,5.0,20,0.00,,---,0.00,VWS V14.00,2013-02-18 21:02:00,
2013-02-18 16:05:00,30.4,-5.9,29.97,WNW,287,1.0,12.0,20,0.00,,---,0.00,VWS V14.00,2013-02-18 21:05:00,
2013-02-18 16:07:00,30.4,-5.9,29.97,NNW,327,5.0,13.0,20,0.00,,---,0.00,VWS V14.00,2013-02-18 21:07:00,
2013-02-18 16:10:00,30.4,-6.9,29.97,NW,305,2.0,13.0,19,0.00,,---,0.00,VWS V14.00,2013-02-18 21:10:00,
2013-02-18 16:12:00,30.4,-6.9,29.97,NNW,342,4.0,13.0,19,0.00,,---,0.00,VWS V14.00,2013-02-18 21:12:00,
2013-02-18 16:13:00,30.4,-5.9,29.97,NNW,333,4.0,13.0,20,0.00,,---,0.00,VWS V14.00,2013-02-18 21:13:00,
2013-02-18 16:15:00,30.4,-5.9,29.97,NNW,340,3.0,9.0,20,0.00,,---,0.00,VWS V14.00,2013-02-18 21:15:00,
2013-02-18 16:17:00,30.4,-5.9,29.97,WNW,299,1.0,9.0,20,0.00,,---,0.00,VWS V14.00,2013-02-18 21:17:00,
2013-02-18 16:18:00,30.4,-5.9,29.97,West,270,14.0,14.0,20,0.00,,---,0.00,VWS V14.00,2013-02-18 21:18:00,
2013-02-18 16:20:00,30.3,-5.9,29.97,West,261,5.0,15.0,20,0.00,,---,0.00,VWS V14.00,2013-02-18 21:20:00,
2013-02-18 16:22:00,30.3,-7.0,29.97,NNW,328,5.0,15.0,19,0.00,,---,0.00,VWS V14.00,2013-02-18 21:22:00,
2013-02-18 16:23:00,30.1,-7.2,29.97,NNW,328,4.0,15.0,19,0.00,,---,0.00,VWS V14.00,2013-02-18 21:23:00,
2013-02-18 16:25:00,30.1,-7.2,29.97,NW,308,1.0,15.0,19,0.00,,---,0.00,VWS V14.00,2013-02-18 21:25:00,
2013-02-18 16:27:00,30.1,-6.1,29.97,NNW,345,4.0,15.0,20,0.00,,---,0.00,VWS V14.00,2013-02-18 21:27:00,
2013-02-18 16:28:00,30.1,-6.1,29.98,NNW,331,3.0,15.0,20,0.00,,---,0.00,VWS V14.00,2013-02-18 21:28:00,
2013-02-18 16:30:00,30.0,-6.2,29.98,NNW,328,5.0,6.0,20,0.00,,---,0.00,VWS V14.00,2013-02-18 21:30:00,
2013-02-18 16:32:00,30.0,-5.2,29.98,NNW,336,2.0,10.0,21,0.00,,---,0.00,VWS V14.00,2013-02-18 21:32:00,
2013-02-18 16:33:00,30.0,-5.2,29.98,NNW,332,6.0,10.0,21,0.00,,---,0.00,VWS V14.00,2013-02-18 21:33:00,
2013-02-18 16:35:00,30.0,-5.2,29.98,NNW,342,7.0,11.0,21,0.00,,---,0.00,VWS V14.00,2013-02-18 21:35:00,
2013-02-18 16:37:00,30.0,-7.2,29.98,NW,320,2.0,11.0,19,0.00,,---,0.00,VWS V14.00,2013-02-18 21:37:00,
2013-02-18 16:38:00,30.0,-6.2,29.98,WNW,302,4.0,11.0,20,0.00,,---,0.00,VWS V14.00,2013-02-18 21:38:00,
2013-02-18 16:40:00,30.0,-5.2,29.98,NW,323,1.0,11.0,21,0.00,,---,0.00,VWS V14.00,2013-02-18 21:40:00,
2013-02-18 16:42:00,29.8,-6.4,29.98,NNW,332,3.0,11.0,20,0.00,,---,0.00,VWS V14.00,2013-02-18 21:42:00,
2013-02-18 16:43:00,29.8,-6.4,29.98,NNW,333,3.0,11.0,20,0.00,,---,0.00,VWS V14.00,2013-02-18 21:43:00,
2013-02-18 16:45:00,29.8,-6.4,29.98,NW,316,1.0,10.0,20,0.00,,---,0.00,VWS V14.00,2013-02-18 21:45:00,
2013-02-18 16:47:00,29.8,-6.4,29.98,West,273,2.0,13.0,20,0.00,,---,0.00,VWS V14.00,2013-02-18 21:47:00,
2013-02-18 16:48:00,29.8,-6.4,29.98,NNW,335,1.0,13.0,20,0.00,,---,0.00,VWS V14.00,2013-02-18 21:48:00,
2013-02-18 16:50:00,29.8,-6.4,29.98,NNW,327,4.0,13.0,20,0.00,,---,0.00,VWS V14.00,2013-02-18 21:50:00,
2013-02-18 16:52:00,29.8,-6.4,29.98,NNW,330,5.0,13.0,20,0.00,,---,0.00,VWS V14.00,2013-02-18 21:52:00,
2013-02-18 16:53:00,29.8,-7.4,29.98,NNW,342,4.0,13.0,19,0.00,,---,0.00,VWS V14.00,2013-02-18 21:53:00,
2013-02-18 16:55:00,29.8,-7.4,29.98,NW,325,3.0,13.0,19,0.00,,---,0.00,VWS V14.00,2013-02-18 21:55:00,
2013-02-18 16:57:00,29.7,-7.5,29.98,NNW,344,4.0,13.0,19,0.00,,---,0.00,VWS V14.00,2013-02-18 21:57:00,
2013-02-18 16:58:00,29.7,-7.5,29.98,NNW,333,4.0,13.0,19,0.00,,---,0.00,VWS V14.00,2013-02-18 21:58:00,
2013-02-18 17:00:00,29.7,-7.5,29.98,NNW,333,4.0,13.0,19,0.00,,---,0.00,VWS V14.00,2013-02-18 22:00:00,
2013-02-18 17:01:00,29.7,-7.5,29.98,NNW,342,6.0,10.0,19,0.00,,---,0.00,VWS V14.00,2013-02-18 22:01:00,
2013-02-18 17:03:00,29.7,-7.5,29.98,NW,324,3.0,13.0,19,0.00,,---,0.00,VWS V14.00,2013-02-18 22:03:00,
2013-02-18 17:04:00,29.7,-7.5,29.98,NW,314,5.0,13.0,19,0.00,,---,0.00,VWS V14.00,2013-02-18 22:04:00,
2013-02-18 17:06:00,29.5,-6.6,29.98,NNW,335,1.0,13.0,20,0.00,,---,0.00,VWS V14.00,2013-02-18 22:06:00,
2013-02-18 17:08:00,29.5,-6.6,29.98,NNW,335,6.0,13.0,20,0.00,,---,0.00,VWS V14.00,2013-02-18 22:08:00,
2013-02-18 17:09:00,29.5,-6.6,29.98,North,352,6.0,13.0,20,0.00,,---,0.00,VWS V14.00,2013-02-18 22:09:00,
2013-02-18 17:11:00,29.5,-6.6,29.98,NW,321,5.0,15.0,20,0.00,,---,0.00,VWS V14.00,2013-02-18 22:11:00,
2013-02-18 17:13:00,29.4,-7.8,29.98,NNW,342,6.0,15.0,19,0.00,,---,0.00,VWS V14.00,2013-02-18 22:13:00,
2013-02-18 17:14:00,29.4,-7.8,29.98,NNW,328,4.0,15.0,19,0.00,,---,0.00,VWS V14.00,2013-02-18 22:14:00,
2013-02-18 17:15:00,29.4,-7.8,29.98,NNW,343,6.0,15.0,19,0.00,,---,0.00,VWS V14.00,2013-02-18 22:15:00,
2013-02-18 17:16:00,29.4,-6.7,29.98,NW,311,4.0,7.0,20,0.00,,---,0.00,VWS V14.00,2013-02-18 22:16:00,
2013-02-18 17:18:00,29.4,-7.8,29.98,NW,304,1.0,11.0,19,0.00,,---,0.00,VWS V14.00,2013-02-18 22:18:00,
2013-02-18 17:19:00,29.4,-6.7,29.98,NNW,331,1.0,11.0,20,0.00,,---,0.00,VWS V14.00,2013-02-18 22:19:00,
2013-02-18 17:21:00,29.4,-7.8,29.98,NNW,338,2.0,11.0,19,0.00,,---,0.00,VWS V14.00,2013-02-18 22:21:00,
2013-02-18 17:23:00,29.4,-6.7,29.98,NW,324,4.0,11.0,20,0.00,,---,0.00,VWS V14.00,2013-02-18 22:23:00,
2013-02-18 17:24:00,29.3,-6.8,29.98,NNW,342,5.0,11.0,20,0.00,,---,0.00,VWS V14.00,2013-02-18 22:24:00,
2013-02-18 17:26:00,29.3,-6.8,29.98,NNW,345,2.0,11.0,20,0.00,,---,0.00,VWS V14.00,2013-02-18 22:26:00,
2013-02-18 17:28:00,29.3,-7.8,29.99,NW,316,7.0,11.0,19,0.00,,---,0.00,VWS V14.00,2013-02-18 22:28:00,
2013-02-18 17:29:00,29.3,-7.8,29.99,NNW,330,1.0,11.0,19,0.00,,---,0.00,VWS V14.00,2013-02-18 22:29:00,
2013-02-18 17:30:00,29.3,-7.8,29.99,NNW,330,0.0,11.0,19,0.00,,---,0.00,VWS V14.00,2013-02-18 22:30:00,
2013-02-18 17:31:00,29.3,-7.8,29.99,NNW,333,2.0,5.0,19,0.00,,---,0.00,VWS V14.00,2013-02-18 22:31:00,
2013-02-18 17:34:00,29.1,-6.9,29.99,NW,320,6.0,7.0,20,0.00,,---,0.00,VWS V14.00,2013-02-18 22:34:00,
2013-02-18 17:36:00,29.1,-6.9,29.99,NW,320,0.0,9.0,20,0.00,,---,0.00,VWS V14.00,2013-02-18 22:36:00,
2013-02-18 17:39:00,29.1,-6.9,29.99,NNW,327,2.0,9.0,20,0.00,,---,0.00,VWS V14.00,2013-02-18 22:39:00,
2013-02-18 17:40:00,29.1,-6.9,29.99,NW,313,4.0,9.0,20,0.00,,---,0.00,VWS V14.00,2013-02-18 22:40:00,
2013-02-18 17:41:00,29.0,-7.0,29.99,NW,326,0.0,9.0,20,0.00,,---,0.00,VWS V14.00,2013-02-18 22:41:00,
2013-02-18 17:44:00,29.0,-6.0,30.00,NW,313,2.0,9.0,21,0.00,,---,0.00,VWS V14.00,2013-02-18 22:44:00,
2013-02-18 17:45:00,29.0,-7.0,30.00,NNW,343,7.0,7.0,20,0.00,,---,0.00,VWS V14.00,2013-02-18 22:45:00,
2013-02-18 17:46:00,29.0,-8.1,30.00,NNW,336,0.0,7.0,19,0.00,,---,0.00,VWS V14.00,2013-02-18 22:46:00,
2013-02-18 17:49:00,29.0,-7.0,30.00,WNW,293,2.0,7.0,20,0.00,,---,0.00,VWS V14.00,2013-02-18 22:49:00,
2013-02-18 17:50:00,29.0,-7.0,30.00,WSW,255,4.0,7.0,20,0.00,,---,0.00,VWS V14.00,2013-02-18 22:50:00,
2013-02-18 17:51:00,29.0,-7.0,30.00,West,276,0.0,7.0,20,0.00,,---,0.00,VWS V14.00,2013-02-18 22:51:00,
2013-02-18 17:54:00,28.8,-7.2,30.00,West,276,1.0,7.0,20,0.00,,---,0.00,VWS V14.00,2013-02-18 22:54:00,
2013-02-18 17:55:00,28.8,-6.2,30.00,West,276,1.0,7.0,21,0.00,,---,0.00,VWS V14.00,2013-02-18 22:55:00,
2013-02-18 17:56:00,28.7,-6.3,30.00,SW,220,2.0,7.0,21,0.00,,---,0.00,VWS V14.00,2013-02-18 22:56:00,
2013-02-18 17:59:00,28.5,-5.5,30.01,SW,232,0.0,0.0,22,0.00,,---,0.00,VWS V14.00,2013-02-18 22:59:00,
2013-02-18 18:00:00,28.5,-5.5,30.01,SW,232,0.0,2.0,22,0.00,,---,0.00,VWS V14.00,2013-02-18 23:00:00,
2013-02-18 18:02:00,28.5,-5.5,30.01,SW,232,0.0,2.0,22,0.00,,---,0.00,VWS V14.00,2013-02-18 23:02:00,
2013-02-18 18:04:00,28.4,-5.6,30.01,SW,232,0.0,2.0,22,0.00,,---,0.00,VWS V14.00,2013-02-18 23:04:00,
2013-02-18 18:05:00,28.2,-5.8,30.01,SW,232,0.0,2.0,22,0.00,,---,0.00,VWS V14.00,2013-02-18 23:05:00,
2013-02-18 18:07:00,28.2,-5.8,30.01,SW,232,0.0,2.0,22,0.00,,---,0.00,VWS V14.00,2013-02-18 23:07:00,
2013-02-18 18:09:00,28.1,-4.0,30.01,SW,232,0.0,2.0,24,0.00,,---,0.00,VWS V14.00,2013-02-18 23:09:00,
2013-02-18 18:10:00,28.1,-4.0,30.01,SW,232,0.0,2.0,24,0.00,,---,0.00,VWS V14.00,2013-02-18 23:10:00,
2013-02-18 18:12:00,27.9,-4.2,30.01,SW,232,1.0,2.0,24,0.00,,---,0.00,VWS V14.00,2013-02-18 23:12:00,
2013-02-18 18:14:00,27.8,-4.3,30.02,SW,231,1.0,1.0,24,0.00,,---,0.00,VWS V14.00,2013-02-18 23:14:00,
2013-02-18 18:15:00,27.8,-4.3,30.02,WSW,250,1.0,6.0,24,0.00,,---,0.00,VWS V14.00,2013-02-18 23:15:00,
2013-02-18 18:17:00,27.6,-4.5,30.02,WSW,250,0.0,6.0,24,0.00,,---,0.00,VWS V14.00,2013-02-18 23:17:00,
2013-02-18 18:20:00,27.6,-2.8,30.02,WSW,247,0.0,6.0,26,0.00,,---,0.00,VWS V14.00,2013-02-18 23:20:00,
2013-02-18 18:21:00,27.6,-2.0,30.02,SW,235,6.0,6.0,27,0.00,,---,0.00,VWS V14.00,2013-02-18 23:21:00,
2013-02-18 18:22:00,27.5,-3.7,30.02,SW,229,3.0,6.0,25,0.00,,---,0.00,VWS V14.00,2013-02-18 23:22:00,
2013-02-18 18:25:00,27.5,-3.7,30.02,SSW,208,2.0,6.0,25,0.00,,---,0.00,VWS V14.00,2013-02-18 23:25:00,
2013-02-18 18:26:00,27.5,-4.6,30.02,WSW,258,1.0,6.0,24,0.00,,---,0.00,VWS V14.00,2013-02-18 23:26:00,
2013-02-18 18:27:00,27.5,-4.6,30.02,WSW,248,0.0,6.0,24,0.00,,---,0.00,VWS V14.00,2013-02-18 23:27:00,
2013-02-18 18:30:00,27.3,-4.7,30.03,West,274,0.0,1.0,24,0.00,,---,0.00,VWS V14.00,2013-02-18 23:30:00,
2013-02-18 18:31:00,27.3,-4.7,30.03,West,274,0.0,1.0,24,0.00,,---,0.00,VWS V14.00,2013-02-18 23:31:00,
2013-02-18 18:32:00,27.3,-4.7,30.03,WSW,244,1.0,7.0,24,0.00,,---,0.00,VWS V14.00,2013-02-18 23:32:00,
2013-02-18 18:35:00,27.3,-3.0,30.03,WSW,245,1.0,7.0,26,0.00,,---,0.00,VWS V14.00,2013-02-18 23:35:00,
2013-02-18 18:36:00,27.3,-3.9,30.03,WSW,243,2.0,7.0,25,0.00,,---,0.00,VWS V14.00,2013-02-18 23:36:00,
2013-02-18 18:37:00,27.2,-4.0,30.03,SW,226,0.0,7.0,25,0.00,,---,0.00,VWS V14.00,2013-02-18 23:37:00,
2013-02-18 18:40:00,27.2,-4.0,30.03,SW,224,1.0,7.0,25,0.00,,---,0.00,VWS V14.00,2013-02-18 23:40:00,
2013-02-18 18:41:00,27.0,-3.3,30.03,WSW,250,0.0,7.0,26,0.00,,---,0.00,VWS V14.00,2013-02-18 23:41:00,
2013-02-18 18:42:00,27.0,-4.1,30.03,SW,235,0.0,7.0,25,0.00,,---,0.00,VWS V14.00,2013-02-18 23:42:00,
2013-02-18 18:45:00,26.9,-4.2,30.03,SW,236,0.0,2.0,25,0.00,,---,0.00,VWS V14.00,2013-02-18 23:45:00,
2013-02-18 18:46:00,26.9,-4.2,30.03,SW,236,0.0,2.0,25,0.00,,---,0.00,VWS V14.00,2013-02-18 23:46:00,
2013-02-18 18:47:00,26.9,-4.2,30.03,WSW,257,2.0,2.0,25,0.00,,---,0.00,VWS V14.00,2013-02-18 23:47:00,
2013-02-18 18:50:00,26.9,-4.2,30.03,WSW,257,0.0,2.0,25,0.00,,---,0.00,VWS V14.00,2013-02-18 23:50:00,
2013-02-18 18:51:00,26.9,-4.2,30.03,WSW,257,0.0,3.0,25,0.00,,---,0.00,VWS V14.00,2013-02-18 23:51:00,
2013-02-18 18:52:00,26.9,-4.2,30.03,WSW,257,0.0,3.0,25,0.00,,---,0.00,VWS V14.00,2013-02-18 23:52:00,
2013-02-18 18:56:00,26.7,-3.6,30.03,WSW,257,0.0,3.0,26,0.00,,---,0.00,VWS V14.00,2013-02-18 23:56:00,
2013-02-18 18:57:00,26.7,-4.4,30.03,West,276,0.0,4.0,25,0.00,,---,0.00,VWS V14.00,2013-02-18 23:57:00,
2013-02-18 19:00:00,26.6,-3.7,30.03,West,276,1.0,4.0,26,0.00,,---,0.00,VWS V14.00,2013-02-19 00:00:00,
2013-02-18 19:01:00,26.6,-4.5,30.03,West,280,0.0,3.0,25,0.00,,---,0.00,VWS V14.00,2013-02-19 00:01:00,
2013-02-18 19:02:00,26.6,-3.7,30.03,West,280,0.0,3.0,26,0.00,,---,0.00,VWS V14.00,2013-02-19 00:02:00,
2013-02-18 19:03:00,26.6,-4.5,30.03,West,269,0.0,3.0,25,0.00,,---,0.00,VWS V14.00,2013-02-19 00:03:00,
2013-02-18 19:06:00,26.4,-3.8,30.03,WNW,295,1.0,4.0,26,0.00,,---,0.00,VWS V14.00,2013-02-19 00:06:00,
2013-02-18 19:07:00,26.4,-3.8,30.03,WNW,295,0.0,4.0,26,0.00,,---,0.00,VWS V14.00,2013-02-19 00:07:00,
2013-02-18 19:08:00,26.4,-3.8,30.03,WNW,295,1.0,4.0,26,0.00,,---,0.00,VWS V14.00,2013-02-19 00:08:00,
2013-02-18 19:12:00,26.3,-3.9,30.03,WNW,295,0.0,4.0,26,0.00,,---,0.00,VWS V14.00,2013-02-19 00:12:00,
2013-02-18 19:13:00,26.3,-3.1,30.03,West,272,2.0,4.0,27,0.00,,---,0.00,VWS V14.00,2013-02-19 00:13:00,
2013-02-18 19:15:00,26.3,-3.1,30.04,West,265,0.0,4.0,27,0.00,,---,0.00,VWS V14.00,2013-02-19 00:15:00,
2013-02-18 19:17:00,26.1,-4.1,30.04,West,267,1.0,4.0,26,0.00,,---,0.00,VWS V14.00,2013-02-19 00:17:00,
2013-02-18 19:18:00,26.1,-4.1,30.04,West,279,5.0,5.0,26,0.00,,---,0.00,VWS V14.00,2013-02-19 00:18:00,
2013-02-18 19:22:00,26.1,-3.3,30.04,West,275,6.0,10.0,27,0.00,,---,0.00,VWS V14.00,2013-02-19 00:22:00,
2013-02-18 19:23:00,26.3,-3.9,30.04,WNW,282,2.0,10.0,26,0.00,,---,0.00,VWS V14.00,2013-02-19 00:23:00,
2013-02-18 19:27:00,26.3,-3.1,30.04,WSW,250,5.0,10.0,27,0.00,,---,0.00,VWS V14.00,2013-02-19 00:27:00,
2013-02-18 19:28:00,26.3,-3.1,30.04,West,281,4.0,10.0,27,0.00,,---,0.00,VWS V14.00,2013-02-19 00:28:00,
2013-02-18 19:30:00,26.3,-3.1,30.04,SW,232,3.0,10.0,27,0.00,,---,0.00,VWS V14.00,2013-02-19 00:30:00,
2013-02-18 19:32:00,26.4,-3.0,30.04,WSW,248,3.0,12.0,27,0.00,,---,0.00,VWS V14.00,2013-02-19 00:32:00,
2013-02-18 19:33:00,26.4,-3.8,30.04,WSW,245,2.0,12.0,26,0.00,,---,0.00,VWS V14.00,2013-02-19 00:33:00,
2013-02-18 19:34:00,26.4,-3.0,30.04,WSW,251,0.0,12.0,27,0.00,,---,0.00,VWS V14.00,2013-02-19 00:34:00,
2013-02-18 19:37:00,26.4,-3.0,30.04,West,278,2.0,12.0,27,0.00,,---,0.00,VWS V14.00,2013-02-19 00:37:00,
2013-02-18 19:38:00,26.4,-3.0,30.04,West,281,2.0,12.0,27,0.00,,---,0.00,VWS V14.00,2013-02-19 00:38:00,
2013-02-18 19:39:00,26.4,-3.8,30.04,West,274,0.0,12.0,26,0.00,,---,0.00,VWS V14.00,2013-02-19 00:39:00,
2013-02-18 19:42:00,26.3,-2.4,30.04,West,263,6.0,12.0,28,0.00,,---,0.00,VWS V14.00,2013-02-19 00:42:00,
2013-02-18 19:43:00,26.3,-3.1,30.04,West,275,6.0,12.0,27,0.00,,---,0.00,VWS V14.00,2013-02-19 00:43:00,
2013-02-18 19:44:00,26.3,-3.1,30.05,West,264,3.0,12.0,27,0.00,,---,0.00,VWS V14.00,2013-02-19 00:44:00,
2013-02-18 19:45:00,26.3,-3.1,30.05,West,264,3.0,12.0,27,0.00,,---,0.00,VWS V14.00,2013-02-19 00:45:00,
2013-02-18 19:47:00,26.3,-3.1,30.05,West,270,3.0,6.0,27,0.00,,---,0.00,VWS V14.00,2013-02-19 00:47:00,
2013-02-18 19:48:00,26.3,-3.1,30.05,West,270,1.0,6.0,27,0.00,,---,0.00,VWS V14.00,2013-02-19 00:48:00,
2013-02-18 19:50:00,26.3,-3.1,30.05,SW,233,1.0,6.0,27,0.00,,---,0.00,VWS V14.00,2013-02-19 00:50:00,
2013-02-18 19:52:00,26.3,-3.1,30.05,WSW,256,3.0,6.0,27,0.00,,---,0.00,VWS V14.00,2013-02-19 00:52:00,
2013-02-18 19:53:00,26.3,-3.9,30.05,WSW,251,3.0,6.0,26,0.00,,---,0.00,VWS V14.00,2013-02-19 00:53:00,
2013-02-18 19:55:00,26.1,-3.3,30.05,WSW,257,0.0,6.0,27,0.00,,---,0.00,VWS V14.00,2013-02-19 00:55:00,
2013-02-18 19:57:00,26.1,-3.3,30.05,West,272,0.0,6.0,27,0.00,,---,0.00,VWS V14.00,2013-02-19 00:57:00,
2013-02-18 19:58:00,26.1,-3.3,30.05,West,272,1.0,6.0,27,0.00,,---,0.00,VWS V14.00,2013-02-19 00:58:00,
2013-02-18 20:00:00,26.0,-3.4,30.05,West,272,0.0,1.0,27,0.00,,---,0.00,VWS V14.00,2013-02-19 01:00:00,
2013-02-18 20:02:00,25.8,-2.8,30.05,West,271,0.0,2.0,28,0.00,,---,0.00,VWS V14.00,2013-02-19 01:02:00,
2013-02-18 20:03:00,25.8,-2.8,30.05,West,271,3.0,3.0,28,0.00,,---,0.00,VWS V14.00,2013-02-19 01:03:00,
2013-02-18 20:05:00,25.8,-2.8,30.05,West,274,2.0,5.0,28,0.00,,---,0.00,VWS V14.00,2013-02-19 01:05:00,
2013-02-18 20:07:00,25.7,-2.9,30.05,WSW,254,0.0,5.0,28,0.00,,---,0.00,VWS V14.00,2013-02-19 01:07:00,
2013-02-18 20:08:00,25.7,-2.9,30.05,WSW,254,0.0,5.0,28,0.00,,---,0.00,VWS V14.00,2013-02-19 01:08:00,
2013-02-18 20:10:00,25.7,-3.6,30.05,West,272,2.0,5.0,27,0.00,,---,0.00,VWS V14.00,2013-02-19 01:10:00,
2013-02-18 20:13:00,25.7,-3.6,30.05,WSW,256,2.0,5.0,27,0.00,,---,0.00,VWS V14.00,2013-02-19 01:13:00,
2013-02-18 20:15:00,25.6,-3.7,30.06,WSW,252,4.0,6.0,27,0.00,,---,0.00,VWS V14.00,2013-02-19 01:15:00,
2013-02-18 20:18:00,25.6,-3.0,30.06,West,267,2.0,6.0,28,0.00,,---,0.00,VWS V14.00,2013-02-19 01:18:00,
2013-02-18 20:20:00,25.6,-3.0,30.06,West,274,1.0,6.0,28,0.00,,---,0.00,VWS V14.00,2013-02-19 01:20:00,
2013-02-18 20:23:00,25.4,-3.1,30.06,West,274,2.0,6.0,28,0.00,,---,0.00,VWS V14.00,2013-02-19 01:23:00,
2013-02-18 20:25:00,25.4,-3.1,30.06,West,274,1.0,6.0,28,0.00,,---,0.00,VWS V14.00,2013-02-19 01:25:00,
2013-02-18 20:28:00,25.3,-3.2,30.06,West,264,2.0,6.0,28,0.00,,---,0.00,VWS V14.00,2013-02-19 01:28:00,
2013-02-18 20:30:00,25.3,-3.2,30.06,West,274,0.0,4.0,28,0.00,,---,0.00,VWS V14.00,2013-02-19 01:30:00,
2013-02-18 20:33:00,25.3,-3.2,30.06,West,271,2.0,5.0,28,0.00,,---,0.00,VWS V14.00,2013-02-19 01:33:00,
2013-02-18 20:36:00,25.1,-4.2,30.06,West,268,5.0,5.0,27,0.00,,---,0.00,VWS V14.00,2013-02-19 01:36:00,
2013-02-18 20:38:00,25.1,-4.2,30.06,West,263,0.0,7.0,27,0.00,,---,0.00,VWS V14.00,2013-02-19 01:38:00,
2013-02-18 20:39:00,25.1,-4.2,30.06,West,263,2.0,7.0,27,0.00,,---,0.00,VWS V14.00,2013-02-19 01:39:00,
2013-02-18 20:41:00,25.1,-3.4,30.06,West,266,3.0,7.0,28,0.00,,---,0.00,VWS V14.00,2013-02-19 01:41:00,
2013-02-18 20:43:00,25.0,-3.5,30.06,West,266,2.0,7.0,28,0.00,,---,0.00,VWS V14.00,2013-02-19 01:43:00,
2013-02-18 20:44:00,25.0,-4.2,30.06,WSW,257,2.0,7.0,27,0.00,,---,0.00,VWS V14.00,2013-02-19 01:44:00,
2013-02-18 20:45:00,25.0,-4.2,30.06,WSW,257,0.0,7.0,27,0.00,,---,0.00,VWS V14.00,2013-02-19 01:45:00,
2013-02-18 20:46:00,25.0,-3.5,30.06,WNW,285,5.0,5.0,28,0.00,,---,0.00,VWS V14.00,2013-02-19 01:46:00,
2013-02-18 20:49:00,24.8,-4.4,30.06,WSW,252,0.0,5.0,27,0.00,,---,0.00,VWS V14.00,2013-02-19 01:49:00,
2013-02-18 20:51:00,24.8,-3.7,30.06,West,265,4.0,5.0,28,0.00,,---,0.00,VWS V14.00,2013-02-19 01:51:00,
2013-02-18 20:54:00,24.8,-3.7,30.06,SW,228,0.0,6.0,28,0.00,,---,0.00,VWS V14.00,2013-02-19 01:54:00,
2013-02-18 20:56:00,24.8,-3.7,30.06,SW,228,0.0,6.0,28,0.00,,---,0.00,VWS V14.00,2013-02-19 01:56:00,
2013-02-18 20:59:00,24.8,-3.7,30.07,SSW,211,0.0,6.0,28,0.00,,---,0.00,VWS V14.00,2013-02-19 01:59:00,
2013-02-18 21:00:00,24.8,-3.7,30.07,SSW,211,0.0,6.0,28,0.00,,---,0.00,VWS V14.00,2013-02-19 02:00:00,
2013-02-18 21:01:00,24.7,-3.0,30.07,WSW,239,0.0,2.0,29,0.00,,---,0.00,VWS V14.00,2013-02-19 02:01:00,
2013-02-18 21:04:00,24.7,-3.8,30.07,West,276,3.0,5.0,28,0.00,,---,0.00,VWS V14.00,2013-02-19 02:04:00,
2013-02-18 21:06:00,24.7,-3.8,30.07,West,266,2.0,5.0,28,0.00,,---,0.00,VWS V14.00,2013-02-19 02:06:00,
2013-02-18 21:09:00,24.7,-3.8,30.07,West,260,0.0,5.0,28,0.00,,---,0.00,VWS V14.00,2013-02-19 02:09:00,
2013-02-18 21:11:00,24.7,-3.8,30.07,West,261,2.0,5.0,28,0.00,,---,0.00,VWS V14.00,2013-02-19 02:11:00,
2013-02-18 21:14:00,24.7,-3.0,30.07,West,262,2.0,5.0,29,0.00,,---,0.00,VWS V14.00,2013-02-19 02:14:00,
2013-02-18 21:15:00,24.5,-3.9,30.07,West,264,0.0,1.0,28,0.00,,---,0.00,VWS V14.00,2013-02-19 02:15:00,
2013-02-18 21:16:00,24.5,-3.9,30.07,West,264,0.0,1.0,28,0.00,,---,0.00,VWS V14.00,2013-02-19 02:16:00,
2013-02-18 21:19:00,24.4,-4.0,30.07,WSW,246,0.0,5.0,28,0.00,,---,0.00,VWS V14.00,2013-02-19 02:19:00,
2013-02-18 21:20:00,24.4,-4.0,30.07,WSW,247,0.0,5.0,28,0.00,,---,0.00,VWS V14.00,2013-02-19 02:20:00,
2013-02-18 21:21:00,24.4,-4.0,30.07,WSW,253,0.0,5.0,28,0.00,,---,0.00,VWS V14.00,2013-02-19 02:21:00,
2013-02-18 21:24:00,24.4,-3.3,30.07,West,276,3.0,5.0,29,0.00,,---,0.00,VWS V14.00,2013-02-19 02:24:00,
2013-02-18 21:25:00,24.4,-3.3,30.07,West,276,2.0,5.0,29,0.00,,---,0.00,VWS V14.00,2013-02-19 02:25:00,
2013-02-18 21:26:00,24.4,-4.0,30.07,West,276,0.0,5.0,28,0.00,,---,0.00,VWS V14.00,2013-02-19 02:26:00,
2013-02-18 21:30:00,24.2,-3.5,30.08,West,276,0.0,0.0,29,0.00,,---,0.00,VWS V14.00,2013-02-19 02:30:00,
2013-02-18 21:31:00,24.2,-3.5,30.08,West,276,1.0,2.0,29,0.00,,---,0.00,VWS V14.00,2013-02-19 02:31:00,
2013-02-18 21:35:00,24.2,-3.5,30.08,West,276,0.0,2.0,29,0.00,,---,0.00,VWS V14.00,2013-02-19 02:35:00,
2013-02-18 21:37:00,24.1,-3.5,30.08,West,276,0.0,2.0,29,0.00,,---,0.00,VWS V14.00,2013-02-19 02:37:00,
2013-02-18 21:40:00,23.9,-3.7,30.08,West,276,0.0,2.0,29,0.00,,---,0.00,VWS V14.00,2013-02-19 02:40:00,
2013-02-18 21:42:00,23.9,-3.0,30.08,West,276,1.0,2.0,30,0.00,,---,0.00,VWS V14.00,2013-02-19 02:42:00,
2013-02-18 21:45:00,23.9,-3.7,30.08,West,276,0.0,0.0,29,0.00,,---,0.00,VWS V14.00,2013-02-19 02:45:00,
2013-02-18 21:47:00,23.8,-3.8,30.08,West,276,0.0,2.0,29,0.00,,---,0.00,VWS V14.00,2013-02-19 02:47:00,
2013-02-18 21:50:00,23.8,-3.1,30.08,West,276,0.0,2.0,30,0.00,,---,0.00,VWS V14.00,2013-02-19 02:50:00,
2013-02-18 21:52:00,23.6,-4.0,30.08,WNW,285,0.0,5.0,29,0.00,,---,0.00,VWS V14.00,2013-02-19 02:52:00,
2013-02-18 21:55:00,23.6,-4.0,30.08,WNW,285,0.0,5.0,29,0.00,,---,0.00,VWS V14.00,2013-02-19 02:55:00,
2013-02-18 21:57:00,23.6,-4.0,30.08,WSW,245,0.0,5.0,29,0.00,,---,0.00,VWS V14.00,2013-02-19 02:57:00,
2013-02-18 22:00:00,23.6,-4.0,30.08,WSW,245,1.0,1.0,29,0.00,,---,0.00,VWS V14.00,2013-02-19 03:00:00,
2013-02-18 22:01:00,23.6,-2.6,30.08,WSW,245,0.0,1.0,31,0.00,,---,0.00,VWS V14.00,2013-02-19 03:01:00,
2013-02-18 22:02:00,23.6,-1.3,30.08,WSW,245,0.0,2.0,33,0.00,,---,0.00,VWS V14.00,2013-02-19 03:02:00,
2013-02-18 22:05:00,23.5,-3.4,30.08,WSW,245,0.0,2.0,30,0.00,,---,0.00,VWS V14.00,2013-02-19 03:05:00,
2013-02-18 22:07:00,23.5,-2.7,30.08,WSW,247,1.0,3.0,31,0.00,,---,0.00,VWS V14.00,2013-02-19 03:07:00,
2013-02-18 22:08:00,23.5,-2.7,30.08,WSW,247,1.0,3.0,31,0.00,,---,0.00,VWS V14.00,2013-02-19 03:08:00,
2013-02-18 22:10:00,23.3,-3.5,30.08,WSW,247,0.0,3.0,30,0.00,,---,0.00,VWS V14.00,2013-02-19 03:10:00,
2013-02-18 22:13:00,23.3,-3.5,30.08,SW,231,0.0,3.0,30,0.00,,---,0.00,VWS V14.00,2013-02-19 03:13:00,
2013-02-18 22:15:00,23.3,-2.8,30.08,SW,231,0.0,3.0,31,0.00,,---,0.00,VWS V14.00,2013-02-19 03:15:00,
2013-02-18 22:16:00,23.3,-2.8,30.08,SW,231,0.0,1.0,31,0.00,,---,0.00,VWS V14.00,2013-02-19 03:16:00,
2013-02-18 22:18:00,23.3,-2.8,30.08,SW,232,0.0,1.0,31,0.00,,---,0.00,VWS V14.00,2013-02-19 03:18:00,
2013-02-18 22:21:00,23.2,-2.9,30.08,SW,231,0.0,2.0,31,0.00,,---,0.00,VWS V14.00,2013-02-19 03:21:00,
2013-02-18 22:23:00,23.0,-2.5,30.08,SSW,211,0.0,3.0,32,0.00,,---,0.00,VWS V14.00,2013-02-19 03:23:00,
2013-02-18 22:26:00,23.0,-3.1,30.08,WSW,249,2.0,3.0,31,0.00,,---,0.00,VWS V14.00,2013-02-19 03:26:00,
2013-02-18 22:28:00,23.0,-3.1,30.08,West,274,1.0,3.0,31,0.00,,---,0.00,VWS V14.00,2013-02-19 03:28:00,
2013-02-18 22:30:00,23.0,-3.1,30.08,West,275,1.0,3.0,31,0.00,,---,0.00,VWS V14.00,2013-02-19 03:30:00,
2013-02-18 22:31:00,23.0,-3.1,30.08,West,275,0.0,3.0,31,0.00,,---,0.00,VWS V14.00,2013-02-19 03:31:00,
2013-02-18 22:33:00,23.0,-2.5,30.08,WSW,248,0.0,5.0,32,0.00,,---,0.00,VWS V14.00,2013-02-19 03:33:00,
2013-02-18 22:36:00,23.0,-2.5,30.08,WSW,258,0.0,5.0,32,0.00,,---,0.00,VWS V14.00,2013-02-19 03:36:00,
2013-02-18 22:38:00,23.0,-3.1,30.08,SW,228,1.0,5.0,31,0.00,,---,0.00,VWS V14.00,2013-02-19 03:38:00,
2013-02-18 22:41:00,23.0,-3.1,30.08,West,273,0.0,5.0,31,0.00,,---,0.00,VWS V14.00,2013-02-19 03:41:00,
2013-02-18 22:43:00,23.0,-2.5,30.09,WSW,257,1.0,5.0,32,0.00,,---,0.00,VWS V14.00,2013-02-19 03:43:00,
2013-02-18 22:44:00,23.0,-2.5,30.09,West,268,3.0,3.0,32,0.00,,---,0.00,VWS V14.00,2013-02-19 03:44:00,
2013-02-18 22:45:00,23.0,-2.5,30.09,WSW,257,3.0,5.0,32,0.00,,---,0.00,VWS V14.00,2013-02-19 03:45:00,
2013-02-18 22:46:00,23.0,-3.1,30.09,WSW,248,0.0,7.0,31,0.00,,---,0.00,VWS V14.00,2013-02-19 03:46:00,
2013-02-18 22:48:00,23.0,-2.5,30.09,West,266,0.0,7.0,32,0.00,,---,0.00,VWS V14.00,2013-02-19 03:48:00,
2013-02-18 22:50:00,23.0,-2.5,30.09,WSW,250,0.0,7.0,32,0.00,,---,0.00,VWS V14.00,2013-02-19 03:50:00,
2013-02-18 22:51:00,23.0,-1.8,30.09,West,264,2.0,7.0,33,0.00,,---,0.00,VWS V14.00,2013-02-19 03:51:00,
2013-02-18 22:53:00,23.0,-1.8,30.09,SW,234,1.0,7.0,33,0.00,,---,0.00,VWS V14.00,2013-02-19 03:53:00,
2013-02-18 22:55:00,23.0,-1.8,30.09,SW,234,1.0,7.0,33,0.00,,---,0.00,VWS V14.00,2013-02-19 03:55:00,
2013-02-18 22:56:00,22.9,-1.9,30.09,SW,234,3.0,7.0,33,0.00,,---,0.00,VWS V14.00,2013-02-19 03:56:00,
2013-02-18 22:59:00,22.9,-1.9,30.09,West,277,1.0,7.0,33,0.00,,---,0.00,VWS V14.00,2013-02-19 03:59:00,
2013-02-18 23:00:00,22.9,-1.9,30.09,WSW,250,2.0,2.0,33,0.00,,---,0.00,VWS V14.00,2013-02-19 04:00:00,
2013-02-18 23:01:00,22.9,-1.9,30.09,WSW,250,4.0,4.0,33,0.00,,---,0.00,VWS V14.00,2013-02-19 04:01:00,
2013-02-18 23:04:00,22.9,-1.9,30.09,WSW,243,0.0,4.0,33,0.00,,---,0.00,VWS V14.00,2013-02-19 04:04:00,
2013-02-18 23:05:00,22.9,-1.3,30.09,WSW,246,1.0,4.0,34,0.00,,---,0.00,VWS V14.00,2013-02-19 04:05:00,
2013-02-18 23:06:00,22.7,-1.4,30.09,West,263,2.0,6.0,34,0.00,,---,0.00,VWS V14.00,2013-02-19 04:06:00,
2013-02-18 23:09:00,22.7,-2.1,30.09,West,266,3.0,6.0,33,0.00,,---,0.00,VWS V14.00,2013-02-19 04:09:00,
2013-02-18 23:10:00,22.7,-2.1,30.09,West,263,2.0,6.0,33,0.00,,---,0.00,VWS V14.00,2013-02-19 04:10:00,
2013-02-18 23:12:00,22.9,-1.9,30.09,WSW,252,3.0,6.0,33,0.00,,---,0.00,VWS V14.00,2013-02-19 04:12:00,
2013-02-18 23:15:00,22.9,-1.9,30.09,WNW,283,3.0,6.0,33,0.00,,---,0.00,VWS V14.00,2013-02-19 04:15:00,
2013-02-18 23:17:00,22.9,-1.3,30.09,WNW,297,0.0,6.0,34,0.00,,---,0.00,VWS V14.00,2013-02-19 04:17:00,
2013-02-18 23:20:00,22.9,-1.9,30.09,WSW,238,5.0,6.0,33,0.00,,---,0.00,VWS V14.00,2013-02-19 04:20:00,
2013-02-18 23:21:00,22.9,-1.9,30.09,West,269,1.0,6.0,33,0.00,,---,0.00,VWS V14.00,2013-02-19 04:21:00,
2013-02-18 23:22:00,22.9,-1.3,30.09,West,269,0.0,6.0,34,0.00,,---,0.00,VWS V14.00,2013-02-19 04:22:00,
2013-02-18 23:25:00,22.9,-1.3,30.09,West,271,3.0,6.0,34,0.00,,---,0.00,VWS V14.00,2013-02-19 04:25:00,
2013-02-18 23:26:00,22.9,-1.3,30.09,West,277,5.0,6.0,34,0.00,,---,0.00,VWS V14.00,2013-02-19 04:26:00,
2013-02-18 23:27:00,22.9,-1.9,30.09,West,263,3.0,10.0,33,0.00,,---,0.00,VWS V14.00,2013-02-19 04:27:00,
2013-02-18 23:30:00,22.9,-1.3,30.09,West,276,2.0,4.0,34,0.00,,---,0.00,VWS V14.00,2013-02-19 04:30:00,
2013-02-18 23:31:00,22.9,-1.3,30.09,West,259,3.0,4.0,34,0.00,,---,0.00,VWS V14.00,2013-02-19 04:31:00,
2013-02-18 23:32:00,22.9,-1.3,30.09,West,268,2.0,4.0,34,0.00,,---,0.00,VWS V14.00,2013-02-19 04:32:00,
2013-02-18 23:35:00,22.9,-1.3,30.09,West,274,3.0,5.0,34,0.00,,---,0.00,VWS V14.00,2013-02-19 04:35:00,
2013-02-18 23:36:00,22.9,-1.3,30.09,West,278,5.0,6.0,34,0.00,,---,0.00,VWS V14.00,2013-02-19 04:36:00,
2013-02-18 23:37:00,22.9,-1.3,30.09,West,264,2.0,6.0,34,0.00,,---,0.00,VWS V14.00,2013-02-19 04:37:00,
2013-02-18 23:40:00,23.0,-1.2,30.09,WSW,249,3.0,7.0,34,0.00,,---,0.00,VWS V14.00,2013-02-19 04:40:00,
2013-02-18 23:41:00,23.0,-1.2,30.09,West,266,0.0,7.0,34,0.00,,---,0.00,VWS V14.00,2013-02-19 04:41:00,
2013-02-18 23:42:00,23.0,-1.2,30.09,West,266,0.0,7.0,34,0.00,,---,0.00,VWS V14.00,2013-02-19 04:42:00,
2013-02-18 23:45:00,23.0,-1.2,30.09,WSW,251,4.0,9.0,34,0.00,,---,0.00,VWS V14.00,2013-02-19 04:45:00,
2013-02-18 23:47:00,23.0,-1.8,30.09,West,269,1.0,9.0,33,0.00,,---,0.00,VWS V14.00,2013-02-19 04:47:00,
2013-02-18 23:51:00,23.0,-1.2,30.09,West,262,7.0,10.0,34,0.00,,---,0.00,VWS V14.00,2013-02-19 04:51:00,
2013-02-18 23:52:00,23.0,-1.2,30.09,West,268,1.0,10.0,34,0.00,,---,0.00,VWS V14.00,2013-02-19 04:52:00,
2013-02-18 23:53:00,23.0,-0.6,30.09,West,268,0.0,10.0,35,0.00,,---,0.00,VWS V14.00,2013-02-19 04:53:00,
2013-02-18 23:56:00,22.9,-1.3,30.09,West,266,2.0,10.0,34,0.00,,---,0.00,VWS V14.00,2013-02-19 04:56:00,
2013-02-18 23:57:00,22.9,-1.3,30.09,West,270,2.0,10.0,34,0.00,,---,0.00,VWS V14.00,2013-02-19 04:57:00,
2013-02-18 23:58:00,22.9,-1.3,30.09,West,270,1.0,10.0,34,0.00,,---,0.00,VWS V14.00,2013-02-19 04:58:00,